                ,  0.290,  0.386,  0.483,  0.580,  0.676,  0.773,  0.869,  0.966,  1.063,  1.159,  1.256,  1.352,  1.449,  1.545,  1.642,  1.739,  1.835,  1.932,  2.028,  2.125,  2.222,  2.318,  2.415,  2.511,  2.608,  2.705,  2.801,  2.898,  2.994,  3.091,  3.188,  3.284,  3.381,  3.477,  3.574,  3.671,  3.767,  3.864,  3.960,  4.057,  4.153,  4.250,  4.347,  4.443,  4.540,  4.636,  4.733,  4.830,  4.926,  5.023,  5.119,  5.216,  5.313,  5.409,  5.506,  5.602,  5.699,  5.796
2000/12/16 00:00,  999.0,  999.0,  999.0,  999.0,    8.8,  999.0,    9.7,  999.0,    4.4,  999.0,  999.0,  999.0,  999.0,  999.0,  999.0,  999.0,  999.0,  999.0,  999.0,  999.0,  999.0,  999.0,  999.0,  999.0,  999.0,  999.0,  999.0,  999.0,  999.0,  999.0,  999.0,  999.0,  999.0,  999.0,  999.0,  999.0,  999.0,  999.0,  999.0,  999.0,  999.0,  999.0,  999.0,  999.0,  999.0,  999.0,  999.0,  999.0,  999.0,  999.0,  999.0,  999.0,  999.0,  999.0,  999.0,  999.0,  999.0,  999.0
2000/12/16 00:10,  999.0,  999.0,  999.0,  999.0,   21.6,   21.6,  999.0,   21.5,   21.2,   20.9,   21.3,   21.1,   20.5,   24.0,   26.4,   27.1,   30.9,   33.0,   35.3,   36.1,   35.5,   40.9,  999.0,   41.8,   41.5,   42.3,   40.7,   41.3,   41.4,   41.6,   41.6,   41.5,   42.0,   42.3,   42.5,   41.5,   42.1,   40.8,   41.7,   41.3,   41.4,   41.7,   41.4,   41.9,   41.6,   42.3,   41.8,  999.0,   41.0,   41.3,   41.8,   41.9,   41.7,   41.4,   41.6,   41.8,   41.2,   41.6
2000/12/16 00:20,  999.0,   21.0,   21.4,   22.1,   22.0,   22.1,  999.0,   21.9,   21.5,   21.4,   20.8,   20.8,   24.4,   24.2,   26.2,  999.0,   28.5,   29.3,   31.2,   34.0,   34.7,   35.0,   37.9,   38.3,   42.0,   41.1,   41.6,   41.5,   41.7,   41.7,   41.9,   41.7,   41.7,   41.4,   41.8,   42.0,   42.1,   41.6,   41.6,   41.7,   41.6,   41.4,   41.5,   42.2,   42.0,   41.3,   41.4,   40.8,   41.6,   41.8,   41.5,   41.1,   41.5,   41.8,   41.4,   41.4,   41.4,   41.0
2000/12/16 00:30,  999.0,   23.3,   22.2,   13.6,   14.0,  999.0,   16.3,   21.4,  999.0,   20.9,   21.6,   22.0,   25.7,   21.6,   23.5,   23.8,   29.0,   35.6,  999.0,   39.7,   37.4,  999.0,   42.2,   36.1,   39.4,   38.7,   41.6,   41.6,   41.9,   42.0,   41.3,   41.4,   41.5,   41.6,   41.9,   42.5,   42.7,   42.2,   41.3,   41.3,   41.6,   42.0,   41.7,  999.0,  999.0,   40.8,   41.1,  999.0,  999.0,   40.8,   35.4,   41.6,   41.9,   42.1,   41.6,   41.9,   -0.5,   -1.1
2000/12/16 00:40,  999.0,  999.0,   19.5,  999.0,   21.8,   14.5,    6.5,   14.4,  999.0,   21.0,   21.1,  999.0,   21.2,   22.4,   25.2,  999.0,   27.4,   28.9,   30.6,   31.6,   32.8,   33.5,   35.4,   37.9,   40.2,   40.8,   40.6,   41.6,   41.5,   41.6,   41.6,   41.8,   42.5,   42.0,   41.8,   42.0,   41.6,   40.9,   41.9,  999.0,   41.9,   41.8,   41.7,   41.5,   42.1,  999.0,   42.7,   42.1,   41.7,  999.0,   42.1,   40.8,   41.1,  999.0,   41.7,   42.4,   41.5,   42.1
2000/12/16 00:50,  999.0,   22.3,   21.7,   21.7,   21.7,   21.9,   22.1,  999.0,   21.4,   21.1,   20.8,   20.9,   21.6,   22.1,   23.1,   26.6,   28.9,   29.6,   31.3,   32.8,   36.4,   35.5,   39.4,   40.3,   41.2,   41.9,   41.8,   42.2,  999.0,   42.2,   41.9,   42.3,   41.5,   41.0,   42.3,   41.5,   41.2,   42.1,   42.0,   41.8,  999.0,   41.2,  999.0,   41.8,   42.1,   42.7,   41.7,   41.8,  999.0,  999.0,   41.9,  999.0,   42.9,   43.1,   41.7,   41.9,   42.4,   41.9
2000/12/16 01:00,  999.0,   21.5,   21.7,   22.4,   22.1,   21.5,   21.2,   21.6,   21.1,   21.5,   20.5,   21.8,   22.1,   22.5,   26.4,   28.4,   30.2,   33.3,   34.8,   37.2,   38.3,   38.7,   40.2,   41.9,   40.9,   42.3,   41.8,   41.5,   41.6,  999.0,   41.8,   41.7,   41.7,   41.6,   41.5,   41.6,   41.3,   42.4,   41.3,   41.9,   42.2,   42.7,   41.8,  999.0,   41.5,   41.9,   41.9,   42.2,   41.8,   41.6,   41.7,   41.9,  999.0,   42.6,   41.5,   41.4,   41.8,   42.0
2000/12/16 01:10,  999.0,   19.5,  999.0,   21.6,  999.0,   21.5,   20.4,   21.6,   21.3,   21.4,   21.4,   21.5,   21.5,   21.8,   24.3,   25.1,   28.5,   30.4,   31.5,   35.2,   35.5,   38.1,   39.6,   40.3,   40.6,   42.3,   41.9,   41.8,   41.7,   42.0,   41.8,   42.2,   41.8,   41.5,   41.4,   42.0,   41.8,   41.8,   41.4,  999.0,   41.5,   41.4,   41.7,   41.4,   41.4,   41.9,   41.3,   41.5,   41.8,   41.6,   41.7,   41.6,   41.4,   41.5,   41.5,   42.1,   41.6,   41.8
2000/12/16 01:20,  999.0,   22.1,   21.3,   21.4,   21.6,  999.0,   21.2,   21.4,   21.5,   21.6,   21.9,  999.0,   21.5,   23.7,   23.4,  999.0,   26.8,   33.4,   29.4,   30.8,  999.0,   37.7,   34.4,   38.9,   38.7,   40.3,   41.0,   40.7,   41.4,   42.4,   42.6,   42.1,   41.5,   41.6,   41.8,   41.7,   43.3,   42.0,   41.6,   41.5,   42.0,   41.8,   41.8,   41.8,   42.5,   41.9,   42.0,  999.0,   41.7,   42.1,   41.4,   41.4,   41.7,  999.0,   42.0,   41.6,  999.0,   41.5
2000/12/16 01:30,  999.0,   21.5,   21.3,   21.4,   22.5,   14.7,   17.4,   22.0,  999.0,   21.3,  999.0,   21.9,   22.2,   24.4,   25.2,   27.0,  999.0,   29.7,   32.3,   33.2,   34.7,   36.7,   38.8,   38.7,   41.7,   41.7,   42.3,   41.4,   42.3,   41.6,   42.7,   41.4,   41.8,   41.9,  999.0,   41.4,   41.6,   41.1,   41.5,   41.0,   41.5,  999.0,   41.5,   41.5,  999.0,   41.8,   42.0,   42.0,   41.9,  999.0,   41.4,   41.2,   42.7,   42.0,   41.0,   41.8,   41.8,   42.5
2000/12/16 01:40,  999.0,  999.0,  999.0,  999.0,  999.0,   22.3,  999.0,   21.3,   21.5,   21.1,   22.0,   21.8,   21.8,   21.3,   21.1,   21.3,  999.0,   22.3,   23.4,   26.2,   28.2,   28.5,   29.8,   30.3,   30.8,   32.8,  999.0,   30.2,   28.9,   31.3,   21.2,   31.4,   24.7,   27.6,   37.3,  999.0,   36.8,   41.3,   41.8,   41.6,   41.7,   41.7,   41.4,   42.1,   41.8,   42.9,   42.3,   42.3,   41.9,   41.9,   41.6,   42.3,   41.8,   41.2,   41.4,   41.5,   42.2,   42.1
2000/12/16 01:50,  999.0,   21.4,   21.9,   21.9,   21.7,   21.7,   21.1,   19.9,   21.3,  999.0,   20.9,   22.5,   20.8,   21.1,   21.7,   22.9,  999.0,  999.0,   26.2,   25.7,   28.1,   29.5,  999.0,   31.3,   32.8,   33.6,   34.5,   35.5,   36.4,   37.7,   38.7,   40.1,   41.8,   41.5,  999.0,   41.0,   41.8,   41.5,   41.4,   41.7,   41.2,   41.3,   41.5,   41.9,   41.1,  999.0,   41.4,   41.4,   42.0,   42.0,  999.0,   41.8,   41.7,  999.0,   42.0,   42.4,   42.1,   41.9
2000/12/16 02:00,  999.0,  999.0,  999.0,  999.0,   14.6,   14.3,   17.9,   14.4,   13.2,   21.7,   12.2,   21.5,   21.5,   21.7,   16.9,   23.2,   21.7,   24.8,   26.7,   26.9,   27.8,  999.0,   29.6,   31.3,   30.9,   31.6,   34.1,   33.4,   36.6,   37.0,   38.5,   38.2,   39.3,   40.4,   42.1,   41.2,   41.7,   42.1,   42.1,   41.2,   41.6,   42.9,   41.3,   41.3,   41.9,  999.0,   41.8,   42.2,   41.5,   41.6,   41.2,   42.0,  999.0,   41.9,   41.4,   41.9,   41.8,   41.9
2000/12/16 02:10,  999.0,  999.0,  999.0,   21.8,    8.1,   16.4,   21.2,   21.3,   17.6,   17.3,   22.1,   21.5,   16.1,   21.5,   22.7,   24.4,   24.1,   24.9,   23.7,   26.7,   28.4,   28.0,   29.2,   -0.6,   15.7,   34.5,   18.2,   33.1,   36.2,   39.0,   38.0,   38.8,   39.7,   40.3,   34.8,   39.1,   40.0,   41.3,   33.4,  999.0,   36.3,  999.0,   35.2,   31.6,  999.0,   41.7,   41.8,   41.7,   37.4,   41.6,   41.6,    7.1,   41.8,   21.9,   41.5,    1.4,  999.0,   41.7
2000/12/16 02:20,  999.0,  999.0,  999.0,  999.0,  999.0,   20.9,   22.0,   22.5,   21.4,   21.2,   21.4,   21.3,  999.0,   21.5,   21.3,  999.0,   24.8,   25.9,   26.3,   27.7,   29.7,   29.9,   31.1,   31.7,   33.0,   33.6,   35.8,   35.1,   37.0,   37.8,   41.7,   39.5,   41.4,   41.7,   41.3,   41.8,  999.0,   41.7,   41.8,   41.4,   42.1,   42.0,   41.8,   41.2,   41.3,   42.1,   43.0,   41.7,   41.7,   41.8,   41.4,   41.8,   41.6,   42.3,   41.4,   42.1,   42.0,   41.9
2000/12/16 02:30,  999.0,  999.0,  999.0,  999.0,   21.4,   17.1,   22.0,   22.0,   15.8,   21.2,   20.7,   21.1,   21.4,  999.0,   21.4,  999.0,   22.3,  999.0,   25.5,  999.0,   27.6,  999.0,  999.0,   30.2,   33.3,   36.8,   38.5,   41.0,   39.1,   39.0,  999.0,   38.8,   39.3,   40.9,   41.1,   38.9,  999.0,   42.0,   41.8,   41.8,   41.7,   42.1,  999.0,   42.2,   42.5,   42.4,   41.4,   41.2,  999.0,   41.0,   41.5,  999.0,   41.8,  999.0,   41.6,   41.4,   41.4,   42.3
2000/12/16 02:40,  999.0,  999.0,  999.0,  999.0,   21.5,  999.0,   21.5,  999.0,   14.5,   21.5,   21.9,   21.5,   21.5,   22.6,   22.3,   22.8,   21.1,   27.4,   20.7,   21.5,   30.4,   26.4,   25.3,  999.0,   30.6,   33.6,   37.2,   38.0,   40.2,   40.8,   41.1,   41.7,   41.8,   41.6,   41.7,   41.6,   42.8,   41.5,   41.9,   41.7,   41.8,   41.1,  999.0,   42.3,   41.8,   41.9,   41.7,  999.0,  999.0,   42.5,   41.9,   41.5,   42.1,   41.4,   41.7,   42.2,   41.9,   42.0
2000/12/16 02:50,  999.0,  999.0,  999.0,  999.0,  999.0,  999.0,  999.0,   21.4,   20.8,   21.1,   21.4,  999.0,   21.5,   19.1,   22.1,   28.0,  999.0,   28.9,   28.6,   31.6,  999.0,   32.3,   35.2,   37.8,   38.0,   35.8,  999.0,   41.0,   40.9,   41.6,   42.6,   41.7,   42.6,   41.4,   41.7,   41.5,   42.1,   41.2,   41.9,   41.9,   41.6,   41.4,   41.8,   41.9,   41.2,  999.0,  999.0,   41.7,   42.0,   42.4,   41.9,   42.1,   41.8,  999.0,   42.1,   42.4,   42.3,   41.9
2000/12/16 03:00,  999.0,  999.0,  999.0,  999.0,  999.0,  999.0,  999.0,  999.0,   20.9,   21.9,   21.8,   22.6,   24.2,   23.9,   24.2,   25.3,   28.9,   27.4,  999.0,   30.1,   31.8,   33.0,   36.6,   36.6,   38.8,   38.9,   39.1,   40.6,   42.3,   42.5,   42.5,   42.1,   42.8,   42.2,   41.9,   41.7,   41.8,   41.7,   42.5,  999.0,   42.1,   42.4,  999.0,   41.8,   42.0,   42.4,   41.8,   41.9,   42.0,   41.9,   41.8,   41.9,   42.4,   41.9,   42.1,   42.1,   42.1,   41.8
2000/12/16 03:10,  999.0,  999.0,  999.0,  999.0,  999.0,  999.0,  999.0,  999.0,   21.4,   21.5,  999.0,   14.9,   21.7,   21.0,   22.1,  999.0,  999.0,   26.6,   28.2,  999.0,   30.1,   32.3,   33.5,   34.7,   36.0,   36.6,  999.0,   41.5,  999.0,   41.5,   41.7,   42.2,   41.7,   41.7,  999.0,   41.3,   41.2,   41.8,  999.0,   41.8,   42.1,   42.1,   41.4,   41.7,   41.9,   41.1,   41.5,   41.5,  999.0,   41.9,   40.9,   42.3,   41.4,  999.0,   41.5,  999.0,   42.2,   42.0
2000/12/16 03:20,  999.0,  999.0,  999.0,  999.0,  999.0,  999.0,  999.0,   16.1,   12.4,   13.4,   14.0,   21.4,   21.6,   21.7,   10.0,   21.3,   19.1,   23.2,  999.0,   20.8,   23.7,   20.8,   21.3,  999.0,  999.0,   26.3,  999.0,   36.5,   34.6,   38.9,   28.5,   20.6,  999.0,   39.6,  999.0,  999.0,   42.3,   41.7,  999.0,   41.6,   41.7,   41.0,  999.0,  999.0,   29.1,  999.0,  999.0,   42.3,  999.0,   41.4,  999.0,   41.4,  999.0,  999.0,  999.0,  999.0,   41.6,  999.0
2000/12/16 03:30,  999.0,  999.0,  999.0,  999.0,  999.0,  999.0,  999.0,  999.0,   13.7,   16.7,  999.0,   10.5,   21.5,   22.7,    9.5,   20.6,   25.2,  999.0,  999.0,   11.9,  999.0,   30.8,  999.0,   33.6,   34.3,   35.2,   36.5,  999.0,   38.8,   37.8,  999.0,   40.0,   41.3,   41.4,   41.3,   41.5,  999.0,  999.0,   41.9,  999.0,  999.0,   41.6,   41.5,   41.1,   41.6,  999.0,   41.7,   40.9,   41.1,  999.0,   42.1,  999.0,   41.7,   41.2,  999.0,   41.9,   41.7,   41.5
2000/12/16 03:40,  999.0,  999.0,  999.0,  999.0,  999.0,  999.0,    9.5,  999.0,  999.0,  999.0,    9.5,    9.6,  999.0,  999.0,    9.0,  999.0,  999.0,   27.7,   29.2,  999.0,  999.0,  999.0,   33.6,   34.3,    4.8,   14.8,  999.0,  999.0,  999.0,  999.0,  999.0,  999.0,   42.3,  999.0,  999.0,  999.0,  999.0,  999.0,  999.0,  999.0,  999.0,  999.0,  999.0,  999.0,  999.0,  999.0,  999.0,  999.0,  999.0,  999.0,    0.3,  999.0,   -0.8,  999.0,  999.0,  999.0,    0.2,   -1.0
2000/12/16 03:50,  999.0,  999.0,  999.0,  999.0,  999.0,  999.0,   14.7,  999.0,  999.0,  999.0,    9.4,  999.0,  999.0,  999.0,   20.8,  999.0,  999.0,   23.7,  999.0,   41.7,  999.0,  999.0,   41.2,  999.0,   41.4,   32.1,  999.0,   41.7,   42.0,   41.0,   41.6,   41.7,   41.5,   41.0,   41.2,   40.6,   42.0,  999.0,   41.9,   41.8,   42.4,   42.1,  999.0,   42.1,   41.9,   41.7,   41.6,  999.0,   42.1,   41.8,   41.5,   42.1,  999.0,   42.0,  999.0,   42.3,  999.0,  999.0
2000/12/16 04:00,  999.0,  999.0,  999.0,  999.0,  999.0,  999.0,    6.8,   12.0,   16.4,    0.9,   15.8,   21.6,  999.0,  999.0,  999.0,  999.0,  999.0,  999.0,  999.0,    5.6,  999.0,  999.0,  999.0,  999.0,  999.0,  999.0,  999.0,  999.0,  999.0,  999.0,  999.0,  999.0,  999.0,  999.0,  999.0,  999.0,  999.0,  999.0,  999.0,  999.0,  999.0,  -15.1,  999.0,  999.0,  999.0,  999.0,  999.0,  999.0,  999.0,  999.0,  999.0,  999.0,  999.0,  999.0,  999.0,  999.0,  999.0,  999.0
2000/12/16 04:10,  999.0,  999.0,  999.0,  999.0,  999.0,  999.0,    8.7,  999.0,   12.2,    8.2,    8.8,  999.0,  999.0,  999.0,   10.3,  999.0,  999.0,  999.0,  999.0,  999.0,  999.0,  999.0,  999.0,  999.0,  999.0,  999.0,  999.0,  999.0,  999.0,  999.0,  999.0,  999.0,  999.0,  999.0,  999.0,  999.0,  999.0,  -41.9,  999.0,  999.0,  999.0,  999.0,  -41.7,  -42.9,  -42.1,  999.0,  -42.4,  -41.9,  999.0,  -42.1,  999.0,  999.0,  999.0,  999.0,  999.0,  999.0,  999.0,  999.0
2000/12/16 04:20,  999.0,  999.0,  999.0,    8.9,    9.6,   12.1,  999.0,   12.2,   -8.4,   13.8,    7.8,    7.6,  999.0,  999.0,  999.0,  999.0,  999.0,  999.0,  999.0,  -23.8,  999.0,  999.0,  999.0,  -27.1,  999.0,  999.0,  999.0,  -32.1,  999.0,  999.0,  -35.5,  -35.8,  -36.9,  999.0,  999.0,  -40.1,  999.0,  999.0,  999.0,  999.0,  999.0,  -41.2,  -41.5,  -41.6,  -41.9,  999.0,  999.0,  999.0,  999.0,  -42.2,  -41.8,  999.0,  -42.4,  -41.0,  999.0,  -41.8,  999.0,  999.0
2000/12/16 04:30,  999.0,  999.0,  999.0,  999.0,   14.1,   19.8,   19.4,   17.8,    5.9,    7.9,    8.0,    7.2,    6.9,    6.6,    6.4,   14.3,   15.1,  999.0,  999.0,  999.0,  999.0,  999.0,  999.0,  999.0,  999.0,  999.0,   10.1,  999.0,  999.0,  999.0,  999.0,  999.0,  999.0,  999.0,  999.0,    2.0,  999.0,    0.3,  999.0,    1.3,    0.6,  999.0,  999.0,  999.0,    0.9,  999.0,  -20.6,  -20.4,  -41.2,  -21.2,  999.0,  -41.9,  -41.6,  -41.8,  -42.1,  999.0,  999.0,  -42.2
2000/12/16 04:40,  999.0,  999.0,  999.0,  999.0,  999.0,    7.0,    3.5,    2.0,    6.3,    6.3,  999.0,    6.8,    6.2,    6.7,    7.5,    9.1,  999.0,  999.0,  999.0,  999.0,   17.6,  999.0,   14.2,  999.0,   12.4,   10.5,   11.5,  999.0,    6.6,    8.6,  999.0,  999.0,  999.0,  999.0,  999.0,  999.0,  999.0,  999.0,  999.0,  999.0,  999.0,  -36.6,  999.0,   -0.8,  -17.3,  999.0,  -42.2,  -42.0,  999.0,  -41.5,  -41.2,  999.0,  -41.2,  -42.0,  -40.4,  -20.9,  999.0,  999.0
2000/12/16 04:50,  999.0,  999.0,  999.0,    8.0,    8.8,  999.0,    7.0,    6.5,    6.1,  999.0,  999.0,    8.5,    7.2,    8.6,    9.8,  999.0,  999.0,  999.0,   18.9,   18.7,  999.0,  999.0,   17.0,   14.2,   15.9,   11.9,   13.2,  999.0,   11.4,  999.0,  999.0,  999.0,  999.0,  999.0,  999.0,  999.0,  999.0,  999.0,  999.0,  999.0,  999.0,  999.0,  -34.5,  999.0,  999.0,  -42.3,  -41.4,  -41.5,  -41.8,  -42.0,  -41.4,  -41.9,  -42.4,  -41.2,  -42.4,  -42.4,  -41.9,  -41.8
2000/12/16 05:00,  999.0,    4.6,    7.8,    8.5,    9.6,    8.3,    7.2,    8.1,    6.1,    7.0,    8.9,  999.0,    8.6,    9.6,   11.8,    9.9,  999.0,  999.0,   20.4,   21.0,   17.6,   19.3,   16.8,   16.3,  999.0,   15.2,   13.9,   13.0,   11.0,    4.6,  999.0,  999.0,  999.0,  999.0,  999.0,  999.0,  999.0,  999.0,  999.0,  999.0,  999.0,  999.0,  999.0,  -41.9,  999.0,  -42.0,  -41.5,  -41.5,  -42.0,  -41.9,  -41.7,  -42.2,  -41.9,  -42.0,  999.0,  -42.1,  -41.1,  -41.3
2000/12/16 05:10,  999.0,    6.0,    6.3,    7.4,    8.0,    9.3,    8.1,    7.1,    6.5,    7.5,    8.1,    8.2,    9.3,    9.3,    8.8,    9.6,  999.0,   14.2,  999.0,  999.0,   16.0,   15.5,   13.9,   13.1,   11.5,   10.7,    9.3,    8.3,    6.5,  999.0,  999.0,  999.0,  999.0,  999.0,  999.0,  999.0,  999.0,  999.0,  999.0,  999.0,  999.0,  999.0,  999.0,  999.0,  -41.3,  -39.3,  999.0,  -42.2,  -41.7,  -41.9,  -42.0,  -42.0,  999.0,  -42.2,  999.0,  -41.8,  -42.1,  -41.6
2000/12/16 05:20,  999.0,    8.0,    6.9,    8.9,    8.4,    8.5,    4.9,    5.5,    5.6,    7.4,    9.1,    8.5,    8.2,    8.0,    7.9,    9.8,  999.0,  999.0,  999.0,  999.0,  999.0,   14.0,   15.2,   12.4,   10.8,    9.7,    8.8,  999.0,  999.0,    4.8,  999.0,  999.0,  999.0,  999.0,  999.0,  999.0,  999.0,  999.0,  999.0,  999.0,  999.0,  999.0,  999.0,  999.0,  999.0,  999.0,  999.0,  999.0,  999.0,  999.0,  -41.9,  999.0,  -42.0,  999.0,  -41.9,  -41.4,  999.0,  -41.5
2000/12/16 05:30,  999.0,    6.1,    6.6,    9.1,   10.0,    7.7,    6.8,    4.2,    3.6,    3.2,    6.8,    7.6,    5.8,    5.0,  999.0,  999.0,  999.0,  999.0,    5.3,  999.0,  999.0,  999.0,  999.0,  999.0,    9.1,  999.0,  999.0,    4.3,  999.0,  999.0,  999.0,  999.0,  999.0,   -4.5,  999.0,  999.0,  999.0,    0.4,  999.0,  999.0,  999.0,  999.0,  999.0,  999.0,  999.0,    0.3,  999.0,  999.0,  999.0,    1.2,    1.1,  -20.2,  999.0,  999.0,    0.8,  -41.7,    0.9,  -42.1
2000/12/16 05:40,  999.0,    5.6,    8.7,    6.0,    9.3,    5.3,    9.0,    6.1,    9.5,    5.7,    8.4,    9.2,    8.9,    5.1,    6.6,  999.0,    4.3,  999.0,  999.0,    1.8,    0.4,    2.4,  999.0,  999.0,  999.0,  999.0,  999.0,  999.0,  999.0,  999.0,  999.0,  999.0,    2.4,    0.8,    0.5,  999.0,    1.3,    0.6,    1.4,    1.1,    0.8,    1.0,    0.8,    0.8,    0.4,    0.1,  999.0,  999.0,    0.8,    0.8,    0.7,    0.9,    1.1,    1.3,    1.1,    1.0,    0.7,    0.6
2000/12/16 05:50,  999.0,    3.9,    6.0,    7.2,    6.7,  999.0,    9.1,    4.7,    5.7,    8.2,    6.2,    7.1,    6.0,    5.7,    4.6,    4.2,  999.0,  999.0,    7.7,  999.0,  999.0,  999.0,  999.0,  999.0,  999.0,  999.0,  999.0,    2.6,  999.0,  999.0,    1.3,    0.4,    0.3,    1.3,    1.5,    1.0,    0.6,    0.9,  999.0,    1.0,    1.7,    1.0,    0.9,    1.0,    0.1,  999.0,    1.0,    0.8,    0.8,  999.0,    1.2,    0.4,   -0.1,    1.2,    0.7,  999.0,  999.0,    0.8
2000/12/16 06:00,  999.0,    1.9,    5.8,    3.9,    4.9,    7.0,   10.4,  999.0,    3.1,  999.0,  999.0,    7.2,    7.8,    6.9,    6.3,    6.9,  999.0,    4.8,  999.0,  999.0,  999.0,  999.0,    8.9,    7.4,  999.0,  999.0,    2.3,  999.0,  999.0,  999.0,  999.0,    1.0,    0.4,  999.0,  999.0,  999.0,    1.6,  999.0,  999.0,  999.0,    0.2,  999.0,    0.1,    1.4,    1.1,    0.2,   -0.1,  999.0,  999.0,  999.0,  999.0,  999.0,    0.8,  999.0,    0.9,    0.1,  999.0,    0.6
2000/12/16 06:10,  999.0,    4.6,  999.0,   10.5,    6.4,   10.7,    2.0,    4.6,    4.4,    7.7,    1.2,    4.9,    6.3,    6.6,    6.8,    5.6,    5.6,    4.4,    3.1,  999.0,  999.0,  999.0,   13.2,    9.2,    9.1,  999.0,    8.1,  999.0,    0.3,    0.4,  999.0,    2.9,    0.9,    1.0,  999.0,    0.9,   -0.0,    0.5,    0.7,    0.7,    0.7,  999.0,    1.7,    1.1,    0.8,    0.6,    0.3,    0.5,    1.0,    0.5,  999.0,    0.4,    0.6,    0.6,    1.1,    0.8,    1.3,   -9.7
2000/12/16 06:20,  999.0,    1.0,    6.6,    3.6,    1.1,    2.4,    6.4,    8.3,    6.4,    2.2,    4.2,    4.5,    6.0,    6.4,   11.6,  999.0,  999.0,    5.8,    7.3,    6.8,   10.3,  999.0,  999.0,  999.0,   21.5,  999.0,   30.1,   17.3,   16.2,    7.8,    6.1,   15.6,    4.2,    3.2,   14.3,    1.2,   21.1,  999.0,    1.4,  999.0,   21.1,    0.3,   41.3,   14.0,    0.2,    0.6,   42.9,   14.5,   42.1,    0.3,   21.3,  999.0,    0.9,    1.2,   42.2,    1.2,   42.4,   42.4
2000/12/16 06:30,  999.0,  999.0,    3.5,  999.0,    2.4,    4.7,    7.8,    3.4,    6.1,    4.6,    5.6,    7.8,    5.3,    7.0,  999.0,  999.0,  999.0,    3.8,    3.1,  999.0,  999.0,  999.0,  999.0,  999.0,  999.0,  999.0,  999.0,  999.0,  999.0,    5.5,    3.4,    3.1,    1.9,    0.5,    0.8,    0.9,  999.0,    0.7,    0.7,    0.3,  999.0,    0.6,    1.1,  999.0,  999.0,    1.8,   -0.3,    0.2,    0.7,    0.8,    0.7,  999.0,    0.9,    0.7,  999.0,    0.9,    0.9,    0.3
2000/12/16 06:40,  999.0,    4.4,  999.0,  999.0,    8.4,   -0.4,    6.7,   -0.8,    4.7,  999.0,  999.0,  999.0,    0.5,  999.0,  999.0,  999.0,    3.8,  999.0,  999.0,  999.0,  999.0,  999.0,  999.0,  999.0,  999.0,  999.0,  999.0,    0.8,    0.5,  999.0,    1.0,    0.6,    0.8,    0.2,  999.0,    0.3,    0.7,    0.8,    1.1,    1.1,    0.7,    0.4,    0.1,    0.8,    0.5,    0.7,    1.0,    0.5,    0.8,    0.7,    1.2,    0.9,  999.0,    0.6,    0.5,    1.2,    1.0,    0.9
2000/12/16 06:50,  999.0,    1.6,    8.0,  999.0,    7.3,    6.7,    6.6,  999.0,    3.5,    2.2,    5.6,  999.0,  999.0,  999.0,    5.6,  999.0,  999.0,  999.0,    2.0,   18.2,   14.9,   12.0,   12.6,    7.2,    7.4,    6.8,    3.5,    1.5,    0.3,    1.0,    1.4,    0.6,    0.1,    0.5,    0.1,    0.8,    1.1,    1.1,    0.7,    1.1,    1.1,    0.3,    0.7,    0.7,    0.7,    1.6,    0.7,    0.7,    0.6,    0.5,    0.6,    1.0,    1.1,    1.4,    1.6,    0.9,    0.7,    0.8
2000/12/16 07:00,  999.0,    6.7,    7.7,    9.7,    5.7,    8.2,  999.0,    6.9,   14.1,   13.7,  999.0,    8.4,    8.5,   20.4,  999.0,   19.9,  999.0,   11.7,   12.7,   10.4,    9.5,    7.7,    8.8,    2.0,    5.2,    2.1,    1.5,    0.7,    0.6,    0.7,    0.4,    0.2,    1.1,    1.1,    0.8,    0.7,    0.8,    1.1,  999.0,    0.5,    0.8,    0.8,    0.6,    0.5,    1.0,    0.6,    0.8,    0.4,    0.5,    0.7,    1.0,  999.0,    0.6,    0.6,    0.6,    0.3,    0.9,    0.9
2000/12/16 07:10,  999.0,    5.1,    6.7,    3.3,  999.0,    4.5,  999.0,  999.0,   11.8,   16.2,  999.0,   12.5,   11.8,   17.9,   20.9,   20.8,   19.7,   18.0,   16.8,   17.5,  999.0,   16.8,   11.2,   10.0,  999.0,    8.1,    1.0,    0.9,    7.2,    5.0,    7.5,    3.6,    4.6,    3.7,    2.6,    3.3,    4.3,  999.0,    0.5,    0.4,    1.2,  999.0,    0.8,    0.9,    0.9,    0.8,    0.8,    1.0,    0.2,    0.7,    1.1,  999.0,    0.2,    1.0,    0.9,    1.0,    0.7,    1.1
2000/12/16 07:20,  999.0,    5.3,    7.5,    7.0,    6.3,    4.0,    2.8,    4.2,    3.9,    4.5,    2.0,  999.0,    5.7,  999.0,  999.0,   20.4,   20.0,   18.3,   18.0,   16.2,   15.6,   13.8,   13.1,   11.1,  -10.6,   10.4,    8.5,   -6.4,  -14.2,  -16.4,  -17.5,  -10.8,    4.0,    1.1,   -9.3,    0.5,    0.4,   -9.9,    0.6,  -20.5,   -0.4,  -20.5,   -9.9,  -20.4,  -20.5,   -9.8,  -20.6,  -13.6,    0.8,    0.4,    0.5,    0.4,    0.3,    0.8,    1.2,    1.2,    0.9,  -20.5
2000/12/16 07:30,  999.0,    3.0,    6.0,    4.7,    3.5,    2.8,    5.3,    6.1,    1.5,    2.3,   -3.8,  999.0,    7.2,   -0.9,    0.6,   -1.9,   -1.3,   -0.0,   -0.5,    2.1,    3.6,    4.7,    5.9,    6.1,    6.2,    7.2,    7.9,    8.9,    8.3,   11.9,   10.0,   12.1,   14.3,   14.4,   15.4,   16.8,  999.0,   21.1,  999.0,  999.0,  999.0,  999.0,  999.0,  999.0,  999.0,  999.0,  999.0,  999.0,  999.0,  999.0,  999.0,  999.0,  999.0,  999.0,  999.0,  999.0,  999.0,  999.0
2000/12/16 07:40,  999.0,   -0.6,   -0.4,    4.1,   -2.5,   -2.1,    2.9,    2.7,   -0.7,    3.8,   -1.7,    8.0,    4.0,    2.7,    5.7,    2.6,    3.9,    5.4,    3.5,    4.0,    5.5,    7.1,    7.7,    7.6,   13.3,   14.0,   12.4,    7.6,    7.5,   13.9,   14.0,    8.0,   15.5,   17.9,   19.5,   16.2,   18.2,   17.4,   18.2,   13.3,  999.0,  999.0,  999.0,  999.0,  999.0,  999.0,   19.0,  999.0,   -1.2,  999.0,   -1.1,  999.0,   -1.0,   -1.4,   -0.8,  999.0,  999.0,   41.5
2000/12/16 07:50,  999.0,  999.0,    8.2,    7.9,   10.3,    7.1,    6.4,    6.5,    5.3,    4.6,    5.9,    5.8,    5.6,    6.1,    6.6,    6.8,    6.7,    6.9,    7.2,    7.5,    7.9,    8.3,    8.0,    7.9,    8.0,    7.9,    7.7,    7.3,    7.4,    7.2,    6.8,    6.7,    5.6,    5.2,    4.9,    4.7,    5.2,    6.3,    6.7,    7.0,    7.4,    7.9,    7.1,    7.1,    7.1,    7.9,   11.5,  999.0,   21.5,  999.0,  999.0,   20.7,  999.0,  999.0,   26.1,  999.0,  999.0,  999.0
2000/12/16 08:00,  999.0,    3.8,    2.6,    3.8,    5.7,    6.9,    5.3,    2.5,    2.1,    2.8,    4.3,    4.1,    2.1,    2.3,    3.5,    4.2,    4.3,    5.1,    6.0,    5.4,    5.0,    4.3,    3.9,    4.3,    4.9,    4.9,    7.1,    6.9,    6.8,    7.9,    8.0,    7.9,    7.5,    7.3,    7.3,    7.3,    6.0,    7.4,    8.5,    9.1,    9.9,   10.6,   11.0,   11.3,    8.6,   11.7,  999.0,  999.0,  999.0,  999.0,  999.0,  999.0,  999.0,  999.0,  999.0,  999.0,  999.0,  999.0
2000/12/16 08:10,  999.0,    5.4,    5.6,    6.5,    6.1,    5.7,    6.1,    7.0,    6.3,    6.7,    6.3,  999.0,    9.9,  999.0,  999.0,  999.0,    8.7,  999.0,  999.0,  999.0,  999.0,  999.0,   21.1,  999.0,  999.0,  999.0,  999.0,  999.0,  999.0,  999.0,  999.0,   24.1,  999.0,  999.0,  999.0,  999.0,  999.0,   26.6,   22.4,  999.0,  999.0,  999.0,  999.0,  999.0,  999.0,  999.0,    2.5,    1.7,    1.4,  999.0,    1.0,    0.7,    0.5,  999.0,    0.7,    0.2,    0.2,    0.0
2000/12/16 08:20,  999.0,    6.2,    7.5,    4.5,    6.0,    5.4,    7.1,    6.7,    6.3,  999.0,  999.0,    6.2,  999.0,  999.0,    7.6,    6.1,    9.5,    7.1,    6.4,  999.0,  999.0,  999.0,  999.0,  999.0,  999.0,  999.0,  999.0,  999.0,  999.0,  999.0,  999.0,  999.0,  999.0,  999.0,  999.0,  999.0,  999.0,    5.8,  999.0,    5.6,  999.0,  999.0,    3.4,    0.7,    1.3,    1.1,    0.4,    1.1,    0.4,    1.0,    1.1,    1.0,    1.3,    1.8,    0.8,  999.0,    0.2,  999.0
2000/12/16 08:30,  999.0,    0.5,   -0.2,    7.7,    6.5,    9.0,    9.7,    6.4,    5.8,    2.1,  999.0,    3.1,  999.0,  999.0,  999.0,  999.0,  999.0,  999.0,    4.4,    6.2,  999.0,  999.0,  999.0,  999.0,    7.3,   12.7,   12.9,   10.6,  999.0,  999.0,    9.2,    8.1,  999.0,    6.3,    6.4,  999.0,    4.8,    3.7,    2.9,    2.6,    1.9,    1.2,   -0.1,   -2.0,    0.7,    0.7,    0.8,    0.3,    0.7,    0.3,    0.2,    0.7,    0.5,    1.2,    0.2,    0.1,    0.5,    0.7
2000/12/16 08:40,  999.0,    1.9,    1.3,    2.7,    4.6,  999.0,    7.2,    6.0,    2.0,    8.4,    6.9,    6.7,   11.2,  999.0,  999.0,    5.3,    7.6,  999.0,  999.0,  999.0,  999.0,  999.0,  999.0,  999.0,   16.7,   13.1,   12.1,  999.0,   13.7,   11.1,    8.2,    8.8,    7.0,  999.0,    6.4,    3.4,    5.2,    2.3,    1.0,  999.0,    1.1,    1.9,  999.0,    3.5,    2.6,    1.3,    1.2,    0.5,    1.0,    0.9,    0.9,    0.9,    0.8,    0.1,    0.4,    0.7,    0.6,    0.9
2000/12/16 08:50,  999.0,    1.8,    2.9,  999.0,    7.8,    9.2,   10.5,   10.5,   10.1,    7.3,    6.3,  999.0,    6.3,  999.0,    5.9,    7.6,    8.5,    6.4,  999.0,    2.6,  999.0,  999.0,  999.0,  999.0,    5.4,    7.9,   12.0,    6.6,  999.0,    6.8,    4.6,    5.6,    4.3,    4.7,    5.2,    0.6,    3.0,    2.1,    1.9,    0.9,    1.1,    0.7,    0.8,    0.7,    0.9,    0.9,    0.6,    1.1,    0.7,    0.4,    1.0,    1.1,    0.4,    1.0,    0.9,    0.6,    0.6,  999.0
2000/12/16 09:00,  999.0,    5.6,    3.6,    5.4,    5.4,    8.3,    8.1,    7.1,    6.0,    6.5,  999.0,    8.7,    0.5,   -5.7,    9.3,  999.0,  999.0,  999.0,  999.0,  999.0,    1.1,  999.0,   11.6,    1.0,    0.7,    2.8,    1.8,  999.0,    0.6,    0.3,    0.5,    0.8,    0.6,    0.8,    0.3,    0.7,    0.5,    0.4,    0.5,    0.7,    0.6,    0.5,    0.4,    0.8,    1.3,    0.9,    1.4,    0.7,    1.1,    1.1,    1.2,    0.6,    0.8,    0.4,    0.7,    0.7,    2.4,    6.0
2000/12/16 09:10,  999.0,    7.3,    4.3,   -1.0,    1.8,   -0.5,    2.5,    3.7,    4.1,    5.3,    7.2,    8.6,    9.3,    3.8,   -6.9,  999.0,  999.0,   14.4,    0.7,    5.9,    9.2,    6.8,    5.2,    0.3,   -8.5,  -13.3,    1.1,  -13.4,    0.5,  -13.3,  -13.3,  -20.3,    0.3,  -20.2,    0.3,  -13.5,    0.7,    1.2,    0.8,    0.8,  -13.1,    1.1,  -20.1,  -13.3,    1.1,    0.7,    0.6,  -20.0,    0.9,    0.8,  -13.4,  -13.3,    0.4,  999.0,  999.0,  -13.3,    0.8,  -20.8
2000/12/16 09:20,  999.0,    4.6,    5.3,    2.5,    7.6,    1.0,    0.4,  999.0,  999.0,    5.1,  999.0,  999.0,  999.0,  999.0,  999.0,  999.0,  999.0,   21.5,   10.9,    9.9,    5.4,    7.3,    5.2,    1.9,    1.1,    0.5,    0.4,    0.9,    0.5,    0.7,    1.1,    0.7,    0.6,    0.4,    0.8,    0.8,    1.1,    0.3,    0.7,    0.8,    0.6,    0.3,    1.1,    0.8,    0.7,    0.7,    1.0,    1.0,    1.5,    0.8,    0.9,    0.9,    1.1,    0.5,    0.5,    0.5,  999.0,    0.4
2000/12/16 09:30,  999.0,    2.6,    8.4,   10.2,    7.3,    2.3,    9.6,  999.0,    8.2,  999.0,  999.0,  999.0,    6.3,   20.7,  999.0,   21.1,   19.9,   17.6,   14.6,   12.8,   11.0,    7.7,    6.5,    2.9,    1.5,    0.8,    0.7,    1.5,    0.9,    0.7,  999.0,    0.4,  999.0,    0.9,    0.8,    0.4,    0.7,    0.4,    0.9,    0.4,    1.1,    0.9,    1.1,    0.6,    0.9,    0.8,    0.6,    0.4,    0.4,    0.9,    0.6,    0.8,    0.9,    0.3,    0.3,  999.0,    0.5,   -0.1
2000/12/16 09:40,  999.0,    1.9,    5.8,    5.9,   10.0,   13.9,   20.5,  999.0,    5.9,    6.9,   21.4,   21.4,   21.5,   21.9,   21.4,   20.2,   20.1,   21.0,   18.3,   14.6,   16.3,   15.5,   12.1,   10.3,    7.6,    5.7,    4.5,    3.7,    2.8,    0.8,    0.7,    1.1,    0.4,    1.1,    1.1,    1.0,    0.9,    0.3,    0.5,    0.4,    0.6,    0.7,    0.9,    0.9,    0.8,    0.7,    0.9,    0.6,    0.6,    0.3,    0.7,    0.5,    0.5,    0.8,    1.0,    0.8,    0.6,    0.6
2000/12/16 09:50,  999.0,    2.1,    3.3,    7.0,    7.2,    4.8,    0.8,    0.4,   -0.1,  999.0,    0.1,   -0.3,  999.0,  999.0,  999.0,  999.0,  999.0,  999.0,   19.3,  999.0,   15.4,  999.0,   11.2,    9.1,    6.5,  999.0,    1.7,    0.8,    1.7,    0.9,    0.7,    1.2,    1.0,    1.6,  999.0,    0.4,    0.7,    1.1,    0.8,    0.7,    0.8,    0.6,    0.8,    0.7,    0.9,    0.5,    0.3,    0.7,    0.5,    0.9,    1.0,    1.2,    1.0,  999.0,    0.7,    1.2,    1.0,    0.6
2000/12/16 10:00,  999.0,    4.4,    6.3,    7.1,    7.2,    6.6,    1.4,    2.9,    2.7,  999.0,    1.9,  999.0,  999.0,  999.0,  999.0,  999.0,   17.7,  999.0,   14.5,  999.0,   10.5,  999.0,  999.0,    5.0,    2.6,    0.5,    0.5,    0.8,    1.1,    0.9,    0.5,    0.2,    0.5,    1.0,    0.6,    0.8,    0.6,    0.7,    0.5,    0.6,    0.7,    0.6,    0.4,    0.5,    0.8,    1.1,    0.6,    0.6,    0.9,    1.0,    0.5,    0.5,    0.8,    0.7,    0.7,    0.8,    1.1,    0.4
2000/12/16 10:10,  999.0,    4.1,    5.6,    5.6,    5.2,    7.0,    4.3,  999.0,  999.0,  999.0,   10.4,  999.0,   10.2,   11.6,   21.1,  999.0,   18.5,   17.4,   17.4,   15.1,  999.0,    9.5,    7.0,    5.2,    2.5,    0.6,    0.6,    0.6,    0.7,    0.8,    0.8,    0.9,    0.7,    0.7,    0.5,    0.7,    0.7,    0.8,    0.8,    1.1,    1.2,    0.8,    0.9,    0.6,    0.7,    1.0,    0.8,    1.0,    0.7,    0.8,    0.6,    0.5,    0.8,    0.5,    0.6,    0.7,   -0.2,    0.3
2000/12/16 10:20,  999.0,    2.0,    2.8,    4.4,    6.2,    6.7,    8.9,   13.3,    7.8,  999.0,   10.0,  999.0,   11.0,   20.3,  999.0,   18.9,  999.0,   19.4,   16.4,  999.0,   13.8,  999.0,    8.4,    8.3,  999.0,    5.3,    4.5,    2.1,    1.4,    0.4,    0.5,    1.0,    1.0,    1.1,    1.1,    1.0,  999.0,    0.7,    1.3,    1.0,  999.0,    1.0,    0.6,    1.6,  999.0,    0.4,    1.2,    1.3,    1.0,    0.4,    0.5,    0.8,    1.0,    0.9,    0.7,  999.0,    0.6,    0.9
2000/12/16 10:30,  999.0,    2.9,    3.0,    5.9,    3.8,    5.2,    5.3,    5.1,    5.7,    6.0,    7.4,    7.3,    9.5,  999.0,   19.7,   14.9,    9.7,   -0.2,   14.3,    1.6,   18.5,   14.7,   13.9,   13.6,   14.7,   14.2,    5.8,   14.9,   15.6,    7.8,   12.6,   18.5,    6.5,   20.3,   14.6,   28.1,   14.4,   16.5,  999.0,   29.9,   33.0,   30.6,   34.4,   39.4,   30.8,   36.9,    0.9,   12.1,   40.5,   20.9,  999.0,   41.9,   41.4,   21.5,   41.7,  999.0,   42.2,   41.7
2000/12/16 10:40,  999.0,   -1.5,    4.8,    5.7,    5.5,    5.1,    6.7,    6.7,    8.3,    8.1,    8.5,    8.2,    9.3,  999.0,  999.0,  999.0,   21.5,   15.5,   10.7,    4.5,  999.0,  999.0,  999.0,    4.7,    6.8,  999.0,  999.0,   11.6,  999.0,  999.0,  999.0,   17.2,  999.0,  999.0,  999.0,   22.2,  999.0,  999.0,   29.6,   41.3,   41.3,   32.2,  999.0,   34.5,   42.7,   42.1,   41.5,   41.1,   42.0,   41.8,   41.5,  999.0,   42.7,   41.9,   41.2,   41.2,  999.0,   42.2
2000/12/16 10:50,  999.0,    4.5,    6.4,    5.9,    6.3,    6.7,    8.1,    8.4,    9.7,    8.9,    7.3,    7.3,    7.4,    6.8,    6.9,    6.4,    8.9,    6.6,    5.0,  999.0,  999.0,  999.0,   21.3,  999.0,  999.0,   33.1,  999.0,   35.7,   36.7,  999.0,   38.9,   40.3,  999.0,   41.8,   42.6,   43.0,   41.5,   41.8,   41.3,   41.5,  999.0,   41.7,   41.4,   41.6,   42.2,   41.8,  999.0,   42.1,  999.0,  999.0,   41.9,   41.5,  999.0,  999.0,   41.9,   41.7,   42.3,   42.3
2000/12/16 11:00,  999.0,    6.1,    6.2,    7.3,    8.6,    8.6,    7.6,    5.9,    6.0,    7.5,    7.5,   14.5,    9.1,   13.8,   21.2,  999.0,  999.0,  999.0,   25.7,   27.1,   29.9,   31.4,   30.4,   33.1,   35.3,   35.0,   39.9,   38.9,   40.1,   41.8,   41.1,   41.8,   41.7,   42.0,   41.8,   41.6,   42.2,   41.6,   41.7,   41.5,   41.5,   41.6,   42.7,   41.1,   42.1,   42.2,   41.6,   41.6,   41.4,   42.2,   41.9,   41.3,   41.5,   41.2,   42.6,   41.6,   40.9,   42.1
2000/12/16 11:10,  999.0,    6.3,    6.5,    7.7,    8.6,    8.3,    7.3,   14.0,   20.4,   21.5,   21.6,   10.5,   20.7,   20.5,   20.8,   21.3,   21.5,   23.3,   19.6,   21.1,   21.0,   20.7,   20.6,    6.2,   30.3,   14.1,   14.8,   34.9,   18.9,   13.0,    0.3,   41.9,   29.8,   27.7,   38.7,   41.7,   25.0,    9.0,   41.9,   41.4,   41.8,   41.6,   28.2,   31.1,   41.7,   13.2,  999.0,   16.7,   42.1,   20.1,   41.4,   20.6,   20.1,   34.4,   31.2,   41.5,   31.0,   27.5
2000/12/16 11:20,  999.0,    0.8,  999.0,    5.0,    3.0,    9.4,    9.0,    5.2,   10.4,    9.1,    8.7,   14.4,    5.7,    5.6,  999.0,  999.0,   24.0,   26.1,   28.1,   29.5,   32.5,   33.8,   35.9,   38.2,   39.8,   42.1,   41.3,   41.8,   42.1,   42.0,   41.8,   41.9,  999.0,   42.0,   41.7,   42.2,   42.0,   41.6,   42.2,   42.0,   41.8,   42.1,   42.0,   41.5,   41.7,   42.2,   42.3,   42.0,   41.7,   42.0,   42.0,   41.8,   41.7,   42.1,   42.3,   42.3,   41.9,   42.1
2000/12/16 11:30,  999.0,    0.6,    0.0,    1.0,    2.7,    1.4,    3.3,    4.8,    7.5,    9.2,   10.7,   10.6,   12.2,   13.1,    7.6,    6.6,    7.6,    8.2,   10.1,   10.3,   14.4,   22.8,   23.9,  999.0,  999.0,   29.2,   36.1,   37.8,   38.9,   40.6,   41.7,  999.0,  999.0,   42.0,  999.0,  999.0,  999.0,   41.7,  999.0,   42.8,   42.1,  999.0,  999.0,   42.1,  999.0,  999.0,   40.0,   41.9,  999.0,  999.0,   41.9,  999.0,   41.9,   41.3,  999.0,   42.0,  999.0,  999.0
2000/12/16 11:40,  999.0,    0.4,    1.7,    4.0,    5.5,    7.3,   10.3,    8.7,    9.1,    8.3,    9.3,    8.1,  999.0,  999.0,   17.2,   22.4,  999.0,   16.4,   22.1,  999.0,   21.1,   24.4,   18.0,   36.0,   25.8,   40.3,   28.4,   21.9,  999.0,   42.4,   42.6,   41.9,   39.7,   41.9,   41.8,   19.9,  999.0,   40.7,   41.6,   41.7,   41.4,   42.3,   32.6,   31.4,   35.2,  999.0,   42.3,   42.2,   42.0,   41.8,   42.1,   41.6,  999.0,   42.2,   41.4,   41.9,   41.7,   42.2
2000/12/16 11:50,  999.0,    3.1,    3.8,    3.7,    3.2,    5.4,    5.8,    5.5,    7.9,    9.5,    8.7,    7.8,    7.8,    7.5,    7.3,    8.6,   14.4,   12.5,   11.0,    8.8,   11.4,   14.0,   21.9,   16.1,   17.5,   26.5,   29.6,   30.3,   30.4,   42.2,   21.9,   41.3,   42.5,  999.0,  999.0,   17.6,   20.6,   27.7,   -1.1,  999.0,   -0.8,   27.9,   27.6,   20.3,   -0.7,   42.2,   20.8,   -0.7,   -1.3,  999.0,   41.2,   20.1,   20.9,   13.1,   -0.7,   -0.8,   -0.6,   20.6
2000/12/16 12:00,  999.0,    5.1,    5.3,    3.1,    6.4,    8.5,    5.1,    4.1,    6.3,    6.3,    8.0,    8.2,    8.1,    9.4,    9.3,    9.3,    8.5,   10.6,   11.6,   11.9,   10.8,   11.5,   11.4,   11.5,   11.4,   11.0,   11.1,   14.2,   10.4,   12.4,    8.6,    8.2,    7.0,   -0.8,   10.6,   -8.7,  -10.0,  -10.0,  999.0,  999.0,  -42.3,  999.0,  -42.3,  -41.9,  -11.9,  999.0,  -11.0,  -36.2,  999.0,   -2.8,  -10.5,  -17.8,  999.0,  -35.0,  999.0,  999.0,  -42.7,  999.0
2000/12/16 12:10,  999.0,    4.5,    8.2,   10.0,    8.5,   10.7,    9.3,   11.6,   12.8,   12.9,   14.8,   15.6,   13.6,   13.5,   13.2,   12.5,   11.7,   14.6,   12.7,   12.4,   13.0,   12.2,   11.7,   12.2,   11.1,   11.6,   11.1,   10.8,   11.6,   11.0,   12.3,   12.6,   13.0,   13.6,   15.7,   17.3,   16.9,   12.0,   15.3,   17.1,   18.6,   18.4,  999.0,  999.0,   41.6,  999.0,  999.0,   41.9,   41.6,   41.6,   41.7,   41.3,   41.8,   41.6,   42.1,   41.8,   42.6,   41.9
2000/12/16 12:20,   19.5,    7.3,    6.4,    4.0,    3.9,    7.3,    6.2,   13.3,   15.3,   13.2,   12.7,   10.8,    8.7,   11.2,    9.6,   12.0,   12.5,   14.2,   12.5,   11.7,   11.1,   11.1,    9.1,    9.8,    9.6,   10.7,   10.1,    9.6,   10.0,    8.8,    9.0,    8.9,    9.6,   10.5,   11.9,   13.4,   14.3,   16.3,   19.4,   24.1,   23.9,   39.8,   41.0,   34.7,   41.8,   41.3,  999.0,  999.0,  999.0,   42.4,   20.8,   41.9,    6.8,   41.7,   -0.4,   20.0,   21.0,    6.1
2000/12/16 12:30,    6.3,    6.2,    7.5,    8.4,    8.1,    9.9,   11.0,   11.3,    0.2,  999.0,    0.6,  999.0,  999.0,  999.0,  999.0,  999.0,  999.0,  -21.4,  -20.9,  999.0,   17.9,  999.0,   16.7,  999.0,  999.0,  999.0,   16.5,   16.7,   10.3,   21.0,   12.0,   11.0,  999.0,   24.1,   24.6,   12.2,   24.3,   11.7,    7.7,   -1.0,   12.5,   -1.4,   -0.5,   41.6,   -0.8,   -0.6,  999.0,   -0.9,   -0.3,  999.0,   -1.2,   -0.6,   -0.9,   -0.6,   -0.7,   -0.2,   -0.3,   -0.4
2000/12/16 12:40,   21.7,   16.0,   10.0,   17.5,    9.7,   11.8,   11.6,    6.2,    0.0,  999.0,   10.7,    3.7,   21.0,   20.8,   21.6,   21.8,   22.8,  999.0,  999.0,   26.5,   27.5,  999.0,  999.0,   30.7,   32.6,   33.8,   34.2,  999.0,  999.0,  999.0,   38.7,   19.9,   11.6,   13.4,   -0.9,   -0.7,   -1.0,   -0.9,   -1.1,   -0.2,   -1.0,   -0.8,   -1.0,   -0.9,   -0.5,   -0.7,   -0.2,   -0.4,   -0.4,   -0.8,  999.0,   -1.0,   -0.3,   -0.6,   -0.7,   -0.8,   -0.8,   -0.9
2000/12/16 12:50,   13.4,   12.4,   10.3,    7.8,    7.1,    6.9,    8.1,    7.9,    7.9,    7.3,    7.4,    8.7,    9.5,   17.5,    9.6,   21.1,   15.3,   10.4,  999.0,    0.5,    0.2,  999.0,  999.0,  999.0,    2.3,  999.0,   41.3,   42.4,    3.1,  999.0,   -1.0,   -2.8,   -4.9,   -0.7,    9.1,    9.4,    5.2,    6.5,   13.7,   -1.2,   -0.9,   -0.9,   20.6,    1.6,   -2.5,   20.7,   -0.8,   -0.9,   -0.6,   -0.8,   -0.6,    0.5,   -0.4,   -0.6,    0.2,   -0.3,   -0.6,  -14.1
2000/12/16 13:00,   13.3,    9.6,    5.7,    1.5,    1.3,    0.6,    0.8,    2.5,    4.4,    5.9,    6.0,    8.7,    6.5,    7.5,    5.2,    8.0,  999.0,  999.0,  999.0,  999.0,  999.0,  999.0,  999.0,  999.0,  999.0,  999.0,   -0.2,   -0.5,   -0.8,   -0.6,   -0.7,   -0.5,  999.0,   -0.7,   -0.8,   -0.5,   -1.2,   -0.8,   -0.8,   -0.9,   -0.9,   -0.4,   -0.9,   -0.9,   -0.3,   -1.0,   -0.5,   -1.1,   -0.8,   -0.5,   -0.8,   -0.8,   -0.8,   -0.5,   -0.7,   -0.7,   -1.0,   -0.8
2000/12/16 13:10,   11.1,    7.1,    1.9,    0.3,    0.4,    0.3,    0.5,    0.7,    0.9,  999.0,    3.4,    1.1,    6.9,    9.0,   15.9,   10.0,   18.5,   20.9,   22.0,   17.1,   32.8,   14.7,  999.0,  999.0,   -0.3,   41.1,   27.6,    7.1,   -0.1,   -0.7,   -0.1,   10.3,   -0.7,  -18.8,   -7.2,   -5.0,    1.6,   10.6,    0.3,    0.3,   -0.6,   11.9,   -3.8,   -4.8,  -13.3,   -0.7,   -0.8,   -0.6,   -9.8,   -1.0,   10.1,   -0.6,   -0.4,   -0.6,  -39.4,   10.1,   -0.9,   -0.5
2000/12/16 13:20,    6.7,    5.9,    2.6,    4.5,    1.9,    0.6,    0.2,    1.9,    8.9,   16.6,   15.4,  999.0,   15.9,   17.1,  999.0,   21.5,  999.0,   36.6,   37.9,   41.1,   41.6,   41.5,   41.4,   41.8,   41.3,   41.9,   41.8,   42.2,   32.7,  999.0,   22.3,   26.0,    4.5,    0.2,  999.0,    0.6,   -0.8,   -0.9,    6.7,    4.7,    2.8,  999.0,   -0.1,    6.9,   -0.8,    4.0,   -6.6,   17.1,   -5.0,   32.0,  -10.0,    1.0,  -13.4,  -19.6,   -7.6,  -13.2,   -0.6,  -10.8
2000/12/16 13:30,    6.2,    4.5,    9.7,    8.0,   13.1,   11.9,   11.0,   13.7,   12.2,    9.7,   16.0,   13.5,    8.8,   18.8,   10.8,   21.6,   33.0,   31.0,   31.0,   28.9,   35.8,   33.1,   39.4,   35.4,   41.5,   12.9,  -19.2,  999.0,  -25.6,  999.0,  999.0,  999.0,  -37.4,  -41.3,   -0.2,   27.2,  -41.6,    0.1,    0.0,    9.7,  -41.9,   19.9,   -1.1,  -41.9,  -21.5,  -14.9,   -0.6,   -0.4,  -21.5,    0.2,  -21.1,  -10.4,  -14.4,   -0.3,   -1.7,   -0.5,  999.0,  -12.7
2000/12/16 13:40,    9.1,    8.0,    9.5,    4.7,    2.9,    3.1,    2.6,    4.6,    6.0,    5.1,    7.2,   -7.1,    9.9,    9.8,   32.0,  999.0,  999.0,   22.2,   34.1,   14.5,   30.5,   41.4,   19.7,   26.0,   25.7,  999.0,   41.5,   41.3,   30.4,   21.5,   40.8,   17.6,   40.0,   30.3,   29.4,   42.1,   41.1,   42.8,   21.0,   41.5,   20.6,   41.6,    0.4,    0.1,    0.5,  -21.4,  -41.7,   15.4,  -20.2,  -19.7,    0.3,    4.4,  -30.7,  -41.4,  -39.4,  -22.3,  -41.5,  -18.0
2000/12/16 13:50,   16.2,   11.6,    8.6,    4.7,    2.0,    5.4,    4.7,    6.2,    6.4,    7.2,    6.6,    7.2,    8.4,  999.0,   21.1,   21.5,   25.7,   27.5,   31.3,   35.6,   37.8,   38.3,   39.3,  999.0,   41.3,   41.6,   41.8,   42.8,   42.2,   41.8,   41.7,   42.1,   42.1,   41.8,   42.0,   42.3,   42.5,   41.9,   39.0,   39.7,   37.2,  999.0,   34.1,  999.0,   33.9,  999.0,  999.0,   -4.1,  -10.1,  999.0,  999.0,  -31.1,  -40.4,  999.0,  -42.3,  -42.7,  -42.2,  -42.3
2000/12/16 14:00,   17.4,   12.9,    9.8,    7.9,    6.4,    6.5,    9.1,    5.2,    7.0,   14.6,  999.0,   21.0,   21.0,  999.0,   21.7,   22.2,   25.3,   27.9,   27.3,   32.3,   32.8,   34.7,   34.9,   38.7,   39.8,   40.1,   40.4,   41.2,   41.7,   41.4,   42.1,   41.7,   41.6,   41.9,   41.7,   41.1,   42.3,   39.1,   37.5,   35.2,   32.7,   23.3,  999.0,  999.0,  999.0,  999.0,  999.0,  999.0,  999.0,  999.0,  999.0,  999.0,  999.0,  999.0,  999.0,  -37.9,  -42.0,  -42.4
2000/12/16 14:10,  999.0,  999.0,  999.0,    6.1,   14.4,   13.0,   13.0,   16.5,   21.3,   21.4,  999.0,   14.2,    9.2,   22.6,   23.2,   21.6,   11.2,   23.9,   13.7,   35.4,   32.8,   33.7,   39.7,   40.5,   42.2,   41.8,   42.4,   42.0,   41.2,   41.9,   40.1,  999.0,   38.2,   37.4,   36.5,   20.7,   10.3,   30.3,   17.0,   15.4,   17.7,  999.0,   13.4,  999.0,   -0.6,  999.0,  999.0,  999.0,   -0.4,   -0.7,  999.0,  999.0,  999.0,   -1.0,  -21.0,  -41.1,  -41.5,  -28.1
2000/12/16 14:20,   18.9,    3.7,    3.5,    8.9,   15.6,   14.7,   21.1,   21.2,   17.8,   20.9,   21.6,   16.9,   20.7,   21.0,   21.4,   22.1,   22.9,   24.2,   26.9,   28.7,   31.8,   34.0,   35.8,   37.8,  999.0,  999.0,  999.0,  999.0,   41.8,   41.6,  999.0,   39.9,   38.9,   37.0,   23.1,  999.0,   26.9,   30.5,  999.0,   27.7,   25.2,  999.0,  999.0,   -0.5,   -0.7,   -0.7,   -0.5,   -0.3,  999.0,   -0.2,   -1.5,   -1.0,   -1.1,   -0.6,  -20.7,   -0.8,   -0.1,  -14.0
2000/12/16 14:30,   29.0,   -2.7,    5.7,    6.3,   16.1,   16.1,   17.0,   21.3,   21.1,   21.4,   21.5,   15.1,   20.4,   17.3,   20.9,   21.3,   22.8,  999.0,  999.0,  999.0,   31.2,  999.0,   23.1,  999.0,   14.2,   20.6,  999.0,  -41.9,  999.0,  -42.1,  -41.5,  -42.1,  -40.4,  -38.3,  -40.6,  -42.1,  999.0,  999.0,  -34.8,  999.0,  -16.1,  999.0,  -19.6,  -14.3,  999.0,   -1.2,   -0.1,  999.0,   -0.8,   -0.2,   -0.7,   -0.5,   -0.7,   -1.9,   -0.6,   -1.0,   -1.0,  -14.0
2000/12/16 14:40,   37.1,  999.0,   21.4,  999.0,  999.0,   21.3,   21.2,   20.8,   20.7,   20.9,   20.8,   21.2,   21.0,   21.1,   21.1,   21.8,   22.4,   22.6,   24.9,   24.3,  999.0,  999.0,  999.0,  999.0,  999.0,  999.0,  999.0,  999.0,  999.0,  999.0,  999.0,  999.0,  999.0,  999.0,   14.4,  999.0,  999.0,  999.0,   -0.7,  999.0,   -0.4,   -1.4,   -0.9,   -0.9,   -0.6,   -0.5,  999.0,   -0.7,   -0.6,   -0.1,   -0.4,   -0.6,   -1.0,   -0.9,   -1.0,   -0.2,   -0.4,   -0.4
2000/12/16 14:50,   37.9,   10.4,    8.1,   15.4,    4.2,    4.4,   16.8,   22.0,   18.5,   21.6,  999.0,   21.1,    9.5,   21.7,   21.1,   22.2,   23.6,   23.5,   26.4,   27.6,  999.0,   29.5,   31.4,   32.0,  999.0,  999.0,  999.0,  999.0,   17.5,   39.9,   40.6,    2.9,    5.3,    8.2,   -0.3,  999.0,   -0.4,  999.0,   25.1,   14.7,   -0.2,    3.2,   30.8,   13.6,   -1.0,   16.2,   -0.6,   -0.6,   11.6,    7.9,   20.3,    5.3,   20.5,   -0.7,   18.9,   -3.5,    0.0,    6.3
2000/12/16 15:00,   36.8,  999.0,  999.0,  999.0,  999.0,    6.9,    6.8,  999.0,    7.6,  999.0,  999.0,  999.0,    9.3,   11.8,  999.0,  999.0,   16.0,   20.7,   17.5,   17.7,   16.3,   14.9,   13.9,   14.1,   11.5,   10.3,   10.2,  999.0,    8.0,    7.1,    4.7,    2.9,    4.2,    2.5,    2.1,    1.9,    2.0,    0.5,    1.2,    0.3,    0.4,    0.4,    0.6,    0.9,    0.8,    0.8,    1.0,    1.8,    0.5,    0.2,    0.4,    0.8,    0.9,    0.5,    0.8,    0.8,    0.8,    0.8
2000/12/16 15:10,   36.1,  999.0,  999.0,   10.5,    8.5,    9.6,    9.0,   10.9,  999.0,  999.0,   10.1,   10.4,   11.6,  999.0,  999.0,  999.0,   17.1,   16.3,   12.9,   11.0,    9.0,    6.5,    5.0,    3.4,    2.8,    0.6,    0.6,  999.0,    0.9,    0.4,    0.7,    0.9,    0.8,    1.0,    1.0,  999.0,    0.6,    1.0,    0.5,    0.8,    1.0,    0.8,    0.8,    0.3,    0.5,    0.7,    0.2,    0.7,    0.6,    0.6,    0.6,    0.6,    0.8,    0.4,    1.1,    0.6,  999.0,    0.4
2000/12/16 15:20,   41.8,  999.0,  999.0,  999.0,    7.9,    9.5,   10.5,   11.4,    8.7,    8.6,    9.1,   10.6,   11.4,  999.0,  999.0,   19.9,   18.5,   16.8,   15.5,   14.3,   13.3,   11.4,    9.9,    8.4,    7.9,    4.7,    4.3,    1.9,    1.2,    0.7,    0.8,    0.3,    0.9,    0.9,    1.0,    0.6,    1.1,    0.9,    1.1,    0.4,    1.1,    1.0,    1.2,    0.8,    0.4,    0.8,    0.7,    0.9,    0.9,    0.9,    1.1,    1.0,    0.9,    1.1,    0.8,    0.7,  999.0,    0.8
2000/12/16 15:30,  999.0,  999.0,  999.0,    8.6,   10.1,   10.3,    8.9,    9.1,    8.7,   10.1,   10.1,   11.9,   13.4,  999.0,  999.0,   20.4,   18.9,   16.2,   16.2,   13.8,   12.3,   11.0,    9.2,    7.9,    6.4,    4.6,    3.4,    2.0,    1.6,    0.8,    0.7,    0.7,    1.2,    1.0,    1.3,    0.7,    0.8,    0.6,    0.9,    0.3,    0.6,    0.5,    0.3,    0.3,    0.5,    0.9,    1.1,    1.0,    0.8,    0.6,    1.0,    0.6,    0.7,    0.9,    0.9,    0.8,    0.3,    0.6
2000/12/16 15:40,   41.5,  999.0,   29.2,   10.8,   10.8,   10.2,  999.0,   10.0,  999.0,   16.5,   21.1,   21.7,   21.0,   21.1,   20.5,  999.0,   23.1,   16.2,   14.1,   12.4,   26.0,   25.2,   24.0,    4.3,   22.0,   41.5,   20.9,   21.1,   11.6,    1.6,    0.5,   15.4,    9.1,    3.8,    0.7,    0.3,    0.4,    0.9,    1.0,   12.5,   10.1,    5.5,   15.3,   20.9,   21.2,   13.6,    7.1,   18.0,   21.1,   11.2,   10.5,   12.2,   38.2,   11.3,   20.4,   10.6,   11.2,   20.3
2000/12/16 15:50,   40.7,  999.0,  999.0,  999.0,  999.0,  999.0,  999.0,   20.6,   21.5,   21.0,  999.0,   19.8,  999.0,   19.2,   20.8,   20.7,   18.7,   17.8,  999.0,   14.3,  999.0,   11.9,   -5.6,    8.1,    6.1,    5.4,    4.0,  999.0,  999.0,  -41.9,  -13.6,  -42.3,  -21.0,  -21.0,    0.7,  999.0,  -20.7,    1.6,    1.5,  999.0,  999.0,    0.7,    1.2,  -13.7,  -20.2,  -20.6,  -21.1,  -42.6,    1.0,  -20.7,  -42.2,  -42.4,  -42.1,  -13.9,    0.9,  -42.0,    1.2,    0.7
2000/12/16 16:00,   41.7,  999.0,   22.5,    9.5,   21.0,   10.5,   15.7,   10.3,   21.3,   20.9,   21.1,   18.9,   20.5,   17.2,   14.3,   21.4,   20.6,   16.7,  999.0,   15.4,  999.0,    5.2,    2.5,    8.3,    3.7,  999.0,    0.1,  999.0,    1.0,  999.0,  999.0,  999.0,    1.5,    0.5,  999.0,    1.4,    1.0,    0.9,    1.0,  999.0,    1.0,  999.0,    1.2,  999.0,    0.9,    0.9,    1.0,    0.7,    0.4,  999.0,    1.0,    1.4,  999.0,    0.7,    1.1,   -0.0,  999.0,    0.4
2000/12/16 16:10,   36.3,  999.0,  999.0,   14.4,   12.8,   17.7,   18.1,   20.5,   15.5,   15.6,   21.7,   20.7,   20.7,   20.8,   20.7,   19.8,   17.7,   18.9,   12.3,   10.6,    1.0,    5.4,    0.9,    2.8,    2.6,    1.3,    1.3,  999.0,    0.8,    0.8,  999.0,    0.7,    0.6,    0.9,    0.7,    0.9,    0.7,    1.1,    0.2,    0.6,    0.9,    0.8,    0.7,    0.6,    0.6,    0.6,    1.0,    0.5,    0.6,    0.8,    0.8,    0.9,    0.5,    0.5,    0.9,    0.5,    1.0,    0.9
2000/12/16 16:20,   39.1,  999.0,   23.0,   21.2,   20.9,   21.1,   21.2,   20.6,   21.3,   21.6,   20.9,   20.8,   21.2,   21.7,   21.1,   20.6,   19.1,   16.8,   15.7,   13.6,   12.3,   10.2,    6.1,    6.9,    1.0,  999.0,    3.3,    3.3,    4.0,    1.7,  999.0,    0.7,    0.6,    0.5,    0.9,    1.3,    0.7,    0.5,    0.5,    1.1,    0.7,    0.9,    0.9,    1.2,  999.0,    1.4,    0.5,    0.3,    0.3,    0.5,    0.3,    0.6,    0.8,    0.7,    1.0,    0.6,    1.0,    1.1
2000/12/16 16:30,  999.0,  999.0,  999.0,   19.8,  999.0,   21.4,   21.3,   21.6,   22.2,   21.0,   22.0,   21.1,   21.0,   20.8,   21.1,   20.2,   18.6,   17.1,   14.0,   13.7,   11.2,   10.1,    7.8,    6.8,    4.9,    2.4,    2.4,    1.1,    0.4,    0.3,    0.8,    0.8,    1.3,    1.2,    0.4,    0.7,    0.7,    0.5,    0.8,    1.1,    0.7,    0.9,    0.8,    0.8,    0.4,    0.7,    0.7,    1.1,    1.1,    0.8,    0.2,    0.7,    0.5,    0.8,    0.5,    0.6,    0.7,    1.0
2000/12/16 16:40,    4.1,  999.0,   10.0,  999.0,  999.0,  999.0,   15.9,  999.0,   15.9,   13.3,   21.1,   21.1,   20.8,   21.6,  999.0,   13.2,   18.3,   12.4,  999.0,   13.7,   11.7,  999.0,    8.3,    7.3,    5.7,  999.0,   -3.7,   -5.0,    1.2,  999.0,    0.1,  999.0,  999.0,  999.0,  999.0,    0.7,    0.4,    0.5,    0.4,  999.0,    1.1,  -20.5,  999.0,  -41.7,  -42.2,  -18.6,    1.0,  999.0,  999.0,  999.0,  999.0,    1.5,  999.0,  999.0,    0.2,  999.0,  999.0,    1.6
2000/12/16 16:50,   25.2,  999.0,   10.4,   10.5,   22.0,  999.0,   21.0,   20.9,   14.5,  999.0,   21.9,   19.4,   21.4,   12.4,   17.6,  999.0,    9.1,  999.0,   18.4,  999.0,   13.9,   11.5,    9.3,    6.7,  999.0,   -6.2,   -5.9,  999.0,    0.5,    0.5,    0.6,    0.6,    0.9,    0.8,    1.3,  999.0,    0.7,  999.0,  999.0,    0.4,  999.0,    0.7,  999.0,    0.7,  999.0,  -41.8,  -21.0,  -20.4,  -42.1,    0.3,  -20.5,  -42.3,  999.0,  -42.1,  -20.8,    0.3,    1.2,  -42.0
2000/12/16 17:00,   33.4,  999.0,  999.0,   11.9,   10.3,    9.1,    9.7,    7.1,    8.0,    8.8,    9.4,    9.6,   15.9,   14.1,   12.8,    4.6,    4.0,    4.3,  999.0,   12.7,    9.5,   -4.5,    4.3,    5.3,  -14.4,   -0.8,   -2.9,   -4.9,  999.0,  999.0,  999.0,   -1.4,   19.3,    0.8,   -0.7,    0.8,    7.2,   21.4,    0.9,  -30.1,   16.2,   -6.7,    1.0,   -5.9,    0.3,   -2.2,   13.8,   -4.3,   -0.0,    6.0,    0.8,    4.4,  -27.3,   10.9,  -11.0,    0.9,  -15.5,  999.0
2000/12/16 17:10,   41.8,  999.0,  999.0,  999.0,   11.7,   11.1,   11.3,   10.1,    9.1,    9.8,   10.5,   10.4,  999.0,  999.0,  999.0,  999.0,  999.0,  999.0,  999.0,  999.0,  999.0,  999.0,  999.0,  999.0,  999.0,  999.0,  999.0,  999.0,    0.7,    0.7,   -0.2,    0.3,    1.0,    0.5,    1.0,    0.7,    1.2,    0.8,    0.9,    0.4,    0.7,   -0.0,    0.5,    0.7,    0.8,    0.7,    0.7,    1.1,    0.8,    1.0,    1.0,    1.1,    1.2,    1.1,    0.5,    0.5,    0.4,    0.9
2000/12/16 17:20,   25.5,    5.2,    8.2,   19.0,    9.9,   10.0,    9.0,    8.7,    8.7,    8.1,    9.2,   10.1,  999.0,  999.0,  999.0,  999.0,  999.0,  999.0,  999.0,  999.0,  999.0,  999.0,  999.0,   -0.9,    0.6,   -0.0,  999.0,  999.0,  -19.9,    0.6,   -1.4,    1.6,    0.6,  999.0,   11.4,    0.5,   10.9,    0.8,   10.8,    0.7,    0.8,    0.7,   15.9,   -0.1,    8.8,   -4.4,    4.1,   -3.7,    0.6,  -10.2,    0.6,  -13.8,   -5.5,    0.8,    0.8,   -6.7,    7.5,   -0.5
2000/12/16 17:30,   41.9,  999.0,   29.6,   23.3,  999.0,    9.1,    9.0,  999.0,  999.0,   21.3,  999.0,   22.2,  999.0,   21.3,   20.7,   19.6,   17.1,   15.4,   12.6,  999.0,    7.9,    6.6,    3.8,    2.5,    0.4,    1.0,    1.1,    0.9,    0.9,   -0.3,  999.0,    0.7,    0.2,    1.1,    1.1,    0.9,    0.7,    0.8,    0.5,    0.9,  999.0,  999.0,    0.6,    0.6,    0.6,    0.5,    0.6,    0.1,    0.7,    0.8,    0.9,    0.4,    0.7,    1.1,    0.4,    0.7,    1.9,    0.9
2000/12/16 17:40,   37.1,  999.0,    7.1,    7.3,  999.0,   -5.4,  999.0,  999.0,  -20.9,  999.0,  999.0,   10.4,   13.6,   -3.1,   -4.3,   15.2,    0.2,   11.4,   12.3,    9.5,    8.7,    3.9,    5.1,    3.4,  999.0,  999.0,    0.3,    0.8,    1.0,    0.5,    0.8,    0.8,    0.6,   16.7,    0.5,    4.3,    1.2,    1.1,    0.7,    0.5,   11.5,   16.3,    0.9,    0.4,    7.2,    0.3,   12.2,    5.5,    2.3,   13.4,    0.6,   19.6,    6.5,    0.3,   19.9,    1.5,   14.1,    1.4
2000/12/16 17:50,   38.4,   32.6,  999.0,   22.0,   21.6,   21.8,   20.9,   12.0,   19.6,   21.8,   21.8,   20.8,   20.7,  999.0,   17.5,   18.3,   17.1,   15.2,   12.9,   11.0,    9.0,    7.4,    4.0,    4.1,    0.7,    1.4,    1.2,    0.7,  999.0,    0.8,    0.9,    1.1,    0.7,    0.8,    0.7,    1.1,    0.6,    0.9,    0.8,    0.6,    1.2,    0.3,    1.1,    0.9,    0.6,    0.4,    0.2,    0.3,    0.8,    0.2,   -0.1,    0.9,    0.6,    0.9,    0.9,    0.9,    1.1,    0.8
2000/12/16 18:00,   35.8,   33.1,   23.3,   21.8,   21.6,   21.6,  999.0,   21.7,   21.6,   21.4,   21.2,   21.6,    6.7,    5.9,   12.0,   17.1,   17.7,   13.4,   17.9,    9.9,    9.3,    7.3,   -3.3,  -16.0,    3.4,   -5.8,   -9.7,  999.0,  -41.4,    1.5,    0.8,    1.0,  -13.9,  -20.7,  -13.6,  -10.1,  -20.5,  -21.0,   -6.0,   -9.3,  -13.3,    0.5,    0.9,    2.9,    4.3,   -2.7,   -0.3,   -2.4,    0.6,    0.6,  -18.2,   -9.7,   -0.4,   -9.7,  999.0,    0.7,  -13.3,    0.7
2000/12/16 18:10,   41.6,  999.0,  999.0,  999.0,   23.0,   21.5,   21.8,   21.4,   21.5,   21.2,   21.3,   21.8,  999.0,  999.0,   21.2,   20.5,   18.9,   15.5,   13.2,   11.7,    8.5,    7.4,    5.1,    1.9,    1.0,    0.7,  999.0,    0.5,  999.0,    0.5,    1.3,  999.0,    0.5,    0.6,    0.8,    0.1,    0.2,    0.9,    1.1,    0.2,    0.3,  999.0,    1.2,    1.5,  999.0,    1.3,    0.6,    0.4,    0.8,    0.6,   -0.2,    0.8,  999.0,    0.9,    1.1,    0.0,    1.2,    0.9
2000/12/16 18:20,  999.0,    7.0,    9.6,   17.3,   13.0,   15.0,  999.0,  999.0,   21.2,  999.0,   12.9,  999.0,  999.0,   20.2,  999.0,   16.7,   16.0,   13.3,   12.7,  999.0,    9.4,    8.0,  999.0,    4.6,    2.7,    1.6,   -0.0,  999.0,    0.6,  999.0,    0.5,  999.0,  999.0,  999.0,  999.0,    1.0,    1.3,    0.3,    0.9,  999.0,    0.6,    0.8,    1.7,  999.0,    1.0,  999.0,    0.6,  999.0,    1.5,  999.0,    1.3,    0.6,  999.0,  999.0,    1.0,    0.9,    0.7,  999.0
2000/12/16 18:30,  999.0,  999.0,  999.0,    1.2,    1.0,    6.6,   10.5,  999.0,   12.4,  999.0,   14.3,  999.0,  999.0,  999.0,   23.8,  999.0,  999.0,   27.4,  999.0,  999.0,  999.0,   33.4,  999.0,   34.6,   35.7,   37.5,  999.0,   39.3,   41.5,   41.9,   41.3,   42.0,  999.0,   42.1,   41.8,  999.0,   42.0,   41.9,  999.0,   42.1,   42.0,   41.9,   41.9,   41.8,   41.5,   41.1,   41.5,   41.9,  999.0,   41.8,   41.7,  999.0,   41.6,   41.1,   41.8,   41.7,   42.2,   41.8
2000/12/16 18:40,  999.0,  999.0,  999.0,    0.7,    5.2,  999.0,  999.0,  999.0,  999.0,  999.0,  999.0,   20.7,  999.0,   20.5,   21.0,   22.4,   23.6,  999.0,   28.1,   29.5,   31.0,   33.0,  999.0,   36.7,   38.6,   40.0,   41.6,  999.0,  999.0,  999.0,  999.0,   41.4,  999.0,  999.0,   42.0,   41.7,   41.5,   41.9,   42.1,   41.1,   41.5,  999.0,   41.5,   42.0,   41.7,  999.0,   41.4,   41.4,   41.4,   41.6,   41.5,   42.0,   41.4,   41.1,  999.0,   41.6,   41.9,   42.4
2000/12/16 18:50,  999.0,    5.9,    7.8,    4.1,    2.9,    5.1,    5.9,    7.6,   13.3,   11.4,   16.8,   20.7,  999.0,  999.0,   21.1,   20.6,  999.0,  999.0,  999.0,  999.0,   27.3,  999.0,  999.0,  999.0,  999.0,  999.0,  999.0,  999.0,  999.0,  999.0,   38.7,  999.0,   41.2,  999.0,  999.0,  999.0,  999.0,  999.0,  999.0,  999.0,  999.0,  999.0,   41.5,  999.0,  999.0,  999.0,  999.0,   41.6,  999.0,  999.0,  999.0,  999.0,  999.0,  999.0,  999.0,   41.7,   41.2,   41.7
2000/12/16 19:00,  999.0,    4.5,    5.0,    4.6,    3.9,    4.5,    1.5,  999.0,    6.1,    7.3,    0.4,   -8.8,  -21.8,   -1.2,   20.3,  999.0,  -21.1,  999.0,  999.0,  999.0,  999.0,  999.0,  999.0,  999.0,  999.0,  999.0,  999.0,  999.0,  999.0,  999.0,  999.0,  999.0,  999.0,  999.0,  999.0,  999.0,  999.0,  999.0,  999.0,  999.0,  999.0,  999.0,  999.0,  999.0,  999.0,  999.0,  999.0,  999.0,  999.0,  999.0,  999.0,  999.0,  999.0,  999.0,  999.0,  999.0,  999.0,  999.0
2000/12/16 19:10,  999.0,    5.2,    3.9,   -2.2,  999.0,    0.3,    8.9,    8.7,    8.4,  999.0,  999.0,  999.0,   21.3,  999.0,   20.6,  999.0,  999.0,  999.0,  999.0,  999.0,  999.0,  999.0,  999.0,   21.4,  999.0,  999.0,   21.4,   20.8,  999.0,  999.0,   21.3,  999.0,  999.0,  999.0,  999.0,  999.0,  999.0,  999.0,  999.0,  999.0,  999.0,   21.5,  -21.0,  -20.6,  999.0,  999.0,  -20.9,  999.0,  999.0,  999.0,  999.0,  999.0,  999.0,  999.0,  999.0,  999.0,  999.0,  999.0
2000/12/16 19:20,  999.0,  999.0,  999.0,  999.0,  999.0,    6.9,    3.4,   12.5,    2.4,  999.0,    9.8,    8.5,    9.0,  999.0,    9.5,  999.0,  999.0,  999.0,  999.0,  999.0,  999.0,  999.0,  999.0,  -15.9,  999.0,  999.0,  999.0,  999.0,  999.0,  999.0,  999.0,  999.0,  999.0,  999.0,  999.0,  999.0,  999.0,  999.0,  999.0,  999.0,  999.0,  -14.6,  999.0,  -17.7,  999.0,  999.0,  -39.7,  999.0,  999.0,  999.0,  -40.9,  -41.9,  -41.6,  -42.0,  999.0,  999.0,  -41.8,  -41.8
2000/12/16 19:30,  999.0,  999.0,  999.0,  999.0,    3.1,   12.7,    2.2,  999.0,  999.0,   10.0,   10.5,  999.0,  999.0,  999.0,   12.2,  999.0,  999.0,  999.0,  999.0,  999.0,  999.0,  999.0,  999.0,  999.0,  999.0,  999.0,  999.0,  999.0,  999.0,  999.0,  999.0,  999.0,  999.0,  999.0,  999.0,  999.0,  999.0,  999.0,  999.0,  999.0,  999.0,  999.0,  999.0,  -37.8,  999.0,  -40.8,  -42.0,  -41.5,  -42.2,  -42.1,  -42.5,  -41.1,  -41.8,  999.0,  -42.1,  999.0,  -41.5,  999.0
2000/12/16 19:40,  999.0,    6.1,    3.5,  999.0,  999.0,   -0.2,   11.6,    9.9,  999.0,    9.1,    7.3,    7.9,  999.0,  999.0,  999.0,  999.0,  999.0,  999.0,  999.0,  999.0,  999.0,  999.0,  999.0,  999.0,  999.0,  999.0,  999.0,  999.0,  999.0,  999.0,  999.0,  999.0,  999.0,  999.0,  999.0,  999.0,  999.0,  999.0,  999.0,  999.0,  999.0,  999.0,  999.0,  999.0,  999.0,  999.0,  999.0,  999.0,  999.0,  999.0,  -16.7,  999.0,  999.0,  999.0,  999.0,  999.0,  999.0,  999.0
2000/12/16 19:50,  999.0,  999.0,  999.0,   13.0,   14.3,   16.4,   11.1,   11.3,  999.0,    9.1,  999.0,  999.0,   21.7,   20.9,  999.0,  999.0,  999.0,   19.8,  999.0,  999.0,   18.4,  999.0,  999.0,   17.0,  999.0,  999.0,  999.0,   14.2,  999.0,  999.0,  999.0,   11.3,  999.0,  999.0,  999.0,  999.0,  999.0,    8.4,    7.9,  999.0,  999.0,  999.0,    5.0,  999.0,  999.0,    4.5,  999.0,    2.5,  -40.0,  -20.4,  -41.4,  -41.5,  999.0,  -20.9,  -41.6,    0.9,  -41.3,  -20.7
2000/12/16 20:00,  999.0,  999.0,  999.0,   11.0,   11.9,  999.0,  999.0,   10.9,   12.4,   10.2,  999.0,   11.9,  999.0,  999.0,  999.0,  999.0,  999.0,  999.0,  999.0,  999.0,  999.0,  999.0,  999.0,  999.0,  999.0,  999.0,  999.0,  999.0,  999.0,  -12.9,  999.0,  999.0,  999.0,  999.0,  999.0,  999.0,  999.0,  -26.3,  -29.1,  999.0,  999.0,  999.0,  999.0,  999.0,  999.0,  999.0,  -42.4,  999.0,  -41.8,  -42.1,  -41.4,  -41.2,  -42.4,  -41.6,  -42.6,  -42.2,  -41.9,  -41.6
2000/12/16 20:10,  999.0,  999.0,  999.0,   12.8,   12.4,    8.7,   11.6,   15.2,   10.3,   10.3,   12.3,    8.8,   11.2,    9.3,  999.0,  999.0,  999.0,  999.0,  999.0,  999.0,  999.0,  999.0,  999.0,  999.0,  999.0,    4.3,  -10.1,   -6.5,   -6.5,  999.0,  999.0,   -6.3,  999.0,  999.0,  999.0,  999.0,  999.0,  999.0,  999.0,  999.0,  999.0,  999.0,  999.0,  999.0,  -41.8,  -40.1,  -42.3,  -42.2,  -42.0,  -41.8,  -41.7,  -42.3,  -42.2,  -41.7,  -42.9,  -41.8,  -42.4,  -42.4
2000/12/16 20:20,  999.0,  999.0,   10.2,    8.8,   10.7,   11.5,   10.4,   11.0,   10.9,  999.0,   11.3,  999.0,   10.3,    9.7,   10.4,    9.0,    7.5,  999.0,  999.0,  999.0,  999.0,  999.0,  999.0,  999.0,  999.0,  999.0,  999.0,  999.0,  999.0,  999.0,  -12.1,  999.0,  999.0,  999.0,  999.0,  999.0,  999.0,  999.0,  999.0,  999.0,  999.0,  999.0,  -41.5,  999.0,  -42.2,  -41.5,  999.0,  999.0,  -42.3,  -42.6,  -41.6,  999.0,  -42.1,  -42.3,  -41.7,  -41.8,  -42.2,  -42.0
2000/12/16 20:30,  999.0,  999.0,  999.0,  999.0,   11.6,   11.4,   12.6,   11.1,   11.5,   12.1,    9.0,  999.0,  999.0,    8.3,   11.6,    9.8,  999.0,  999.0,  999.0,  999.0,    2.5,  999.0,  999.0,  999.0,  999.0,  999.0,  999.0,  999.0,  999.0,  999.0,  999.0,  999.0,  999.0,  999.0,  999.0,  999.0,  999.0,  999.0,  999.0,  -41.5,  999.0,  999.0,  -42.1,  -42.0,  -41.8,  -42.0,  -41.6,  -42.2,  -42.1,  -41.8,  -41.5,  -41.6,  -41.7,  -41.6,  -41.6,  999.0,  -41.6,  -41.4
2000/12/16 20:40,  999.0,   17.3,  999.0,   14.0,   12.7,   10.2,   10.3,   10.5,    6.2,  999.0,  999.0,  999.0,  999.0,    9.9,  999.0,    6.5,  999.0,  999.0,  999.0,  999.0,  999.0,  999.0,  999.0,  999.0,  999.0,  999.0,  999.0,  999.0,  999.0,  999.0,  999.0,  999.0,  999.0,  999.0,  999.0,  999.0,  999.0,  999.0,  999.0,  999.0,  -41.0,  -41.4,  -42.2,  -41.8,  -41.4,  -42.0,  -42.3,  -42.4,  -41.4,  -42.3,  -42.3,  -41.9,  -42.3,  -41.8,  -41.9,  -41.7,  -42.1,  -41.3
2000/12/16 20:50,  999.0,  999.0,  999.0,  999.0,  999.0,    9.9,    8.8,   10.2,  999.0,    8.9,  999.0,    7.5,    8.4,    7.5,  999.0,  999.0,  999.0,  999.0,  999.0,   -3.0,  999.0,  999.0,  999.0,  999.0,  999.0,  999.0,  999.0,  999.0,  999.0,  999.0,  999.0,  999.0,  999.0,  999.0,  999.0,  999.0,  999.0,  999.0,  -41.4,  -41.9,  -42.0,  999.0,  -42.2,  -41.8,  -42.4,  999.0,  999.0,  -41.4,  999.0,  999.0,  -41.9,  -42.1,  -42.0,  -41.4,  -42.2,  999.0,  -41.7,  -41.9
2000/12/16 21:00,  999.0,   21.5,   21.0,  999.0,  999.0,   10.3,    9.0,   10.1,  999.0,  999.0,  999.0,  999.0,    9.1,    9.6,    9.1,  999.0,  999.0,  999.0,  999.0,  999.0,  999.0,  999.0,  999.0,  999.0,  -11.0,  999.0,  999.0,  999.0,  999.0,  999.0,  999.0,  999.0,  999.0,  999.0,  999.0,  999.0,  999.0,  999.0,  999.0,  -41.9,  -41.6,  -41.6,  -41.4,  -41.7,  -41.1,  -41.9,  -41.9,  -41.3,  -41.2,  -41.5,  -41.7,  -41.4,  -41.6,  -42.3,  -41.9,  999.0,  -41.9,  -41.4
2000/12/16 21:10,  999.0,   21.8,  999.0,   11.2,   12.0,   11.3,   10.9,   11.4,  999.0,   13.0,  999.0,   16.4,   11.8,  999.0,  999.0,   10.1,   14.1,   21.0,  999.0,   19.8,   18.2,  999.0,   16.3,  999.0,  999.0,  999.0,  999.0,  999.0,  999.0,  999.0,  999.0,  999.0,    4.4,    3.4,  999.0,  999.0,  999.0,    1.0,  -42.0,  -41.8,  -42.0,  -27.8,  -34.9,  -41.9,  -41.8,  999.0,  -20.6,  -42.3,  -42.2,  -40.6,  999.0,  -34.7,  -41.8,  -42.2,  -42.0,  -42.0,  999.0,  -41.9
2000/12/16 21:20,  999.0,  999.0,  999.0,  999.0,   12.2,   11.9,   11.1,   10.8,  999.0,  999.0,  999.0,   12.8,   11.6,  999.0,   10.7,  999.0,  999.0,  999.0,  999.0,  999.0,  999.0,  999.0,  999.0,  999.0,  999.0,  999.0,  999.0,  999.0,  999.0,  999.0,  999.0,  999.0,  999.0,  999.0,  999.0,  999.0,  999.0,  999.0,  -41.3,  -42.1,  -42.2,  -41.9,  -42.2,  -42.1,  -42.2,  -41.9,  -42.2,  -42.1,  -42.3,  -42.3,  -42.6,  -42.3,  -41.9,  -41.9,  -42.0,  -42.2,  -41.3,  -42.3
2000/12/16 21:30,  999.0,  999.0,  999.0,   20.1,   12.0,   14.2,   11.0,   10.7,    8.4,    7.7,    4.7,  999.0,  999.0,   12.0,    7.8,  999.0,  999.0,  999.0,  999.0,  999.0,  999.0,  999.0,  999.0,  999.0,  999.0,  999.0,  999.0,  999.0,  999.0,  999.0,  999.0,  999.0,  999.0,  999.0,  -42.3,  999.0,  -40.8,  999.0,  -41.8,  -41.6,  -41.2,  -41.2,  -41.8,  -41.5,  -41.7,  -41.6,  -41.4,  -42.3,  -41.4,  -42.7,  999.0,  -40.9,  -41.2,  -41.1,  -40.8,  -41.8,  -40.3,  -41.5
2000/12/16 21:40,  999.0,  999.0,   10.5,   11.7,   13.0,   21.2,  999.0,  999.0,   21.1,    8.3,  999.0,  999.0,  999.0,  999.0,   11.8,    1.0,  999.0,  999.0,  999.0,  999.0,  999.0,  999.0,  999.0,    1.1,  999.0,  999.0,  999.0,  999.0,  999.0,  999.0,  999.0,  999.0,  -41.0,  -20.4,  -42.8,  999.0,  -42.1,  -41.9,  -27.9,  -43.0,  -41.7,  -42.8,  -41.9,    1.8,  -41.7,  -42.0,  -41.4,  -41.0,  -42.0,  -41.5,  -41.9,  -42.2,  -41.6,  -42.0,  -42.0,  -41.3,  -41.9,  -41.3
2000/12/16 21:50,  999.0,    9.7,   12.2,   11.8,   12.9,  999.0,   13.8,  999.0,   14.8,  999.0,  999.0,  999.0,    8.8,  999.0,  999.0,  999.0,  999.0,  999.0,  999.0,  999.0,  999.0,  999.0,  999.0,  999.0,  999.0,  999.0,  999.0,  999.0,  999.0,  999.0,  999.0,  999.0,  -42.3,  -42.6,  -42.2,  -42.6,  -41.3,  -41.5,  -41.6,  -42.4,  -41.7,  -42.1,  -41.7,  -41.9,  -41.8,  -42.1,  -42.2,  -42.2,  -42.1,  -41.7,  -41.7,  -41.8,  -42.2,  999.0,  -41.9,  999.0,  -41.8,  -41.5
2000/12/16 22:00,  999.0,   11.3,   10.1,   10.3,   11.0,   12.1,  999.0,   10.4,   13.5,   15.6,    8.9,    7.7,    8.1,    9.3,   -8.4,  -12.1,   18.2,  999.0,  999.0,  999.0,  999.0,   12.3,  999.0,   10.0,    9.4,  999.0,    6.7,  999.0,  -16.2,  -38.4,  999.0,  999.0,  -42.2,  999.0,  -20.6,  999.0,  -42.0,  999.0,  -20.9,  -41.8,  -41.7,  -41.3,  999.0,  999.0,  -42.0,  -41.8,  999.0,  -42.4,    1.2,  -20.4,  999.0,  -41.6,  -41.6,  999.0,  999.0,  999.0,  999.0,  -41.7
2000/12/16 22:10,  999.0,   21.8,    5.2,    5.1,    8.4,   11.2,   10.2,  999.0,    8.9,  999.0,   12.6,    8.9,    7.7,    7.1,  999.0,  999.0,    8.8,    8.4,  999.0,  999.0,  999.0,  999.0,  999.0,  999.0,  999.0,  999.0,  999.0,  999.0,  999.0,  999.0,  999.0,  999.0,  999.0,  -41.1,  -41.3,  -42.0,  -41.4,  -41.4,  -41.8,  -41.7,  -42.4,  -41.5,  -41.6,  -41.6,  -41.5,  -42.0,  -41.5,  -41.6,  -42.0,  -42.1,  -42.1,  -41.6,  -41.4,  999.0,  -41.5,  -41.2,  999.0,  -40.4
2000/12/16 22:20,  999.0,  999.0,   11.1,   11.4,   10.8,   10.7,    9.1,    8.3,    7.2,    6.8,  999.0,  999.0,   20.5,   11.7,   11.3,   21.5,  999.0,   21.0,  999.0,  999.0,  999.0,  999.0,  999.0,  999.0,  999.0,  999.0,  999.0,  999.0,  999.0,  999.0,  999.0,  999.0,  999.0,  999.0,  -41.4,  999.0,  -41.8,  -41.3,  -41.4,  -41.8,  999.0,  -41.5,  -42.5,  999.0,  -42.1,  -42.3,  -41.7,  -41.6,  999.0,  -41.8,  -42.0,  -41.5,  -42.1,  -42.8,  -42.0,  -42.3,  -41.7,  -41.8
2000/12/16 22:30,  999.0,  999.0,  999.0,    0.7,   11.4,  999.0,    7.6,  999.0,  999.0,   10.4,   -0.1,    4.8,    9.7,  999.0,  999.0,  999.0,  999.0,  999.0,  999.0,  999.0,  999.0,  999.0,  999.0,    1.5,  999.0,  999.0,  999.0,  999.0,  999.0,  999.0,  999.0,  -38.9,  999.0,  999.0,  999.0,  999.0,  -41.6,  -41.9,  999.0,  -42.0,  -42.3,  -42.0,  -41.8,  -42.3,  999.0,  999.0,  -42.2,  -42.2,  -41.6,  -41.7,  -41.5,  -41.8,  -42.2,  999.0,  -41.6,  -41.6,  -40.9,  -41.8
2000/12/16 22:40,  999.0,  999.0,   10.9,   11.3,   10.6,   10.4,  999.0,  999.0,    8.5,  999.0,  999.0,    7.2,    4.8,  -21.7,  -21.2,  999.0,  -21.5,  999.0,  999.0,  999.0,  -24.1,  999.0,  -27.8,  999.0,  999.0,  -31.4,  999.0,  -34.4,  -35.8,  999.0,  -39.3,  999.0,  -41.0,  -41.9,  -41.8,  -42.1,  -41.4,  -41.8,  -41.9,  -42.0,  -41.9,  -41.9,  999.0,  -42.0,  -42.0,  -42.2,  999.0,  -42.2,  -41.8,  -41.3,  -42.0,  -41.3,  -41.4,  -41.7,  -42.3,  -42.3,  -41.6,  -41.9
2000/12/16 22:50,  999.0,  999.0,  999.0,    0.6,  999.0,    0.5,  999.0,  999.0,   10.4,   10.7,    0.0,  999.0,  999.0,  999.0,  999.0,  999.0,  999.0,  999.0,    8.8,    7.7,  999.0,  999.0,  999.0,  999.0,  999.0,  999.0,  999.0,  999.0,  999.0,  999.0,  999.0,    7.9,  999.0,   23.8,   -0.3,   22.6,    0.2,    0.6,    0.4,    2.0,  -19.9,   11.1,  -19.7,  -20.9,   41.9,  999.0,  999.0,  -41.8,    0.4,   21.6,    0.8,  -20.7,   20.7,   42.1,   11.0,    0.3,   21.6,    1.0
2000/12/16 23:00,  999.0,    0.9,   -1.9,    9.8,   10.4,   11.3,   11.1,   10.5,    9.5,    9.0,   11.3,  999.0,  999.0,   10.1,    8.9,    4.8,    5.1,    5.5,    4.4,   -2.1,    2.3,  999.0,  999.0,   -5.3,   -8.4,   -6.5,   -6.7,  -11.7,  999.0,  999.0,  999.0,  999.0,  999.0,  999.0,  999.0,  999.0,  999.0,  999.0,  999.0,  999.0,  999.0,  -12.4,  999.0,  -41.3,  999.0,  -42.7,  -41.0,  999.0,  -41.6,  -42.0,  -41.5,  -41.3,  -41.9,  999.0,  -41.9,  -42.0,  -42.6,  -42.3
2000/12/16 23:10,  999.0,    9.9,   10.1,   10.5,   12.5,   12.6,   10.1,   10.9,    9.7,    9.3,    7.3,    8.2,  999.0,   11.0,    9.1,  999.0,  999.0,  999.0,  999.0,  999.0,  999.0,  999.0,    3.2,  999.0,  999.0,  999.0,  999.0,  999.0,  999.0,  999.0,  999.0,  999.0,   -2.2,  999.0,  999.0,  999.0,  999.0,  999.0,  999.0,  999.0,  999.0,  999.0,  999.0,  999.0,  999.0,  999.0,  999.0,  -41.1,  999.0,  -42.0,  -41.8,  -42.4,  -41.7,  -41.2,  -41.0,  -41.9,  -41.7,  -42.2
2000/12/16 23:20,  999.0,   21.2,   20.5,  999.0,   13.8,   12.8,   12.2,   13.2,   12.6,   11.3,   10.4,    9.7,  999.0,    8.7,    8.9,  999.0,    6.5,    7.1,    6.1,  999.0,  999.0,    2.7,  999.0,  999.0,  999.0,  999.0,  999.0,  999.0,  999.0,  999.0,  999.0,  999.0,  999.0,  999.0,  999.0,  999.0,  999.0,  999.0,  999.0,  999.0,  999.0,  -42.4,  -42.3,  999.0,  -42.5,  -41.6,  -42.0,  -41.2,  -41.5,  -41.3,  -41.3,  -41.8,  -41.4,  999.0,  -41.8,  -41.1,  -41.8,  -42.0
2000/12/16 23:30,  999.0,   21.0,  999.0,  999.0,  999.0,   12.5,   10.7,    9.0,    9.9,  999.0,    9.4,    9.0,  999.0,  999.0,  999.0,  999.0,  999.0,  999.0,    5.6,  999.0,  999.0,  999.0,  999.0,  999.0,  999.0,  999.0,  999.0,  999.0,  999.0,  999.0,  999.0,  999.0,  999.0,  999.0,  999.0,  999.0,  -41.8,  999.0,  -41.8,  -42.1,  -41.9,  999.0,  -42.2,  -42.3,  -42.7,  999.0,  -41.5,  -42.0,  -41.4,  -41.6,  -42.0,  -41.6,  -41.9,  -41.7,  -42.9,  -41.5,  -42.0,  -41.6
2000/12/16 23:40,  999.0,  999.0,    8.1,    9.1,   10.2,   10.5,    9.1,    4.1,  999.0,  999.0,  999.0,  999.0,   21.8,  999.0,   21.4,   21.1,   10.3,   10.3,   17.5,  999.0,   15.0,   13.8,  999.0,  999.0,   11.4,    9.5,    8.6,    6.7,  999.0,    5.2,    4.1,    3.2,    2.3,  999.0,  999.0,    0.8,  999.0,  -20.8,  999.0,    0.7,  999.0,  999.0,  -42.5,  999.0,   11.6,    4.6,    0.6,  -41.5,    7.0,  999.0,   -7.8,  -41.9,   -4.7,   21.0,   -0.5,   20.8,  -13.6,  -41.4
2000/12/16 23:50,  999.0,    7.1,  999.0,    8.4,    9.8,    9.6,    8.8,    9.3,   10.3,    9.6,   11.8,   20.9,  999.0,   20.9,  999.0,  999.0,  999.0,  999.0,   19.5,  999.0,   17.4,   14.7,   14.3,   12.9,   12.2,  999.0,    9.8,    8.7,    8.2,    7.6,    5.9,    5.2,    3.5,    3.0,    0.4,  999.0,    1.0,   -0.0,    0.9,    0.4,    0.7,    0.9,    0.8,    1.0,    0.9,    1.0,    0.6,    0.7,    0.7,    0.6,    0.8,    1.1,  999.0,    0.5,    1.6,    0.8,    0.6,    1.0
